EW2975 Weather Reports


Display with metric or nautical units.
time (UTC)temp
F
wind
direction
speed
MPH
gust
MPH
rain 1hr
in
rain 24hr
in
rain mn
in
humidity
%
barometer
mb
20260901153104 89 161 3.0 6.0 0.00 0.00 0.00 56 1016.4
20260901153005 89 171 3.0 6.0 0.00 0.00 0.00 56 1016.5
20260901152904 89 178 3.0 6.0 0.00 0.00 0.00 55 1016.4
20260901152805 89 189 2.0 6.0 0.00 0.00 0.00 54 1016.5
20260901152604 89 203 2.0 5.0 0.00 0.00 0.00 54 1016.5
20260901152404 89 211 2.0 5.0 0.00 0.00 0.00 55 1016.4
20260901152306 89 226 2.0 5.0 0.00 0.00 0.00 54 1016.4
20260901152104 89 269 2.0 6.0 0.00 0.00 0.00 58 1016.4
20260901152005 89 281 2.0 7.0 0.00 0.00 0.00 58 1016.4
20260901151904 89 281 2.0 7.0 0.00 0.00 0.00 58 1016.4
20260901151804 89 276 2.0 7.0 0.00 0.00 0.00 59 1016.5
20260901151704 88 272 2.0 7.0 0.00 0.00 0.00 59 1016.4
20260901151504 88 271 2.0 7.0 0.00 0.00 0.00 60 1016.4
20260901151404 88 273 2.0 7.0 0.00 0.00 0.00 60 1016.4
20260901151305 88 275 2.0 7.0 0.00 0.00 0.00 59 1016.4
20260901151204 88 271 2.0 7.0 0.00 0.00 0.00 59 1016.4
20260901151104 88 264 1.0 7.0 0.00 0.00 0.00 59 1016.4
20260901151004 87 254 1.0 4.0 0.00 0.00 0.00 59 1016.4
20260901150904 87 251 1.0 4.0 0.00 0.00 0.00 60 1016.5
20260901150804 87 249 1.0 4.0 0.00 0.00 0.00 60 1016.5
20260901150704 87 255 1.0 4.0 0.00 0.00 0.00 60 1016.5
20260901150604 86 263 2.0 4.0 0.00 0.00 0.00 62 1016.6
20260901150504 86 268 2.0 4.0 0.00 0.00 0.00 64 1016.6
20260901150404 85 271 2.0 4.0 0.00 0.00 0.00 64 1016.6
20260901150303 85 270 2.0 4.0 0.00 0.00 0.00 65 1016.6
20260901150205 85 271 2.0 4.0 0.00 0.00 0.00 64 1016.5
20260901150104 85 271 2.0 4.0 0.00 0.00 0.00 65 1016.5
20260901150004 85 270 2.0 4.0 0.00 0.00 0.00 65 1016.5
20260901145804 85 271 2.0 4.0 0.00 0.00 0.00 65 1016.6
20260901145604 85 284 2.0 4.0 0.00 0.00 0.00 65 1016.5
20260901145504 85 288 2.0 4.0 0.00 0.00 0.00 65 1016.6
20260901145404 85 288 2.0 4.0 0.00 0.00 0.00 65 1016.5
20260901145306 85 291 2.0 4.0 0.00 0.00 0.00 65 1016.6
20260901145204 85 290 2.0 4.0 0.00 0.00 0.00 65 1016.6
20260901145004 85 291 2.0 6.0 0.00 0.00 0.00 65 1016.6
20260901144903 85 294 2.0 6.0 0.00 0.00 0.00 65 1016.6
20260901144804 85 293 2.0 6.0 0.00 0.00 0.00 64 1016.6
20260901144704 85 290 3.0 6.0 0.00 0.00 0.00 65 1016.6
20260901144604 85 289 3.0 6.0 0.00 0.00 0.00 66 1016.6
20260901144503 85 288 3.0 6.0 0.00 0.00 0.00 66 1016.6
20260901144404 85 287 3.0 6.0 0.00 0.00 0.00 66 1016.6
20260901144304 86 286 3.0 6.0 0.00 0.00 0.00 66 1016.7
20260901144205 85 285 3.0 6.0 0.00 0.00 0.00 66 1016.6
20260901144104 85 285 3.0 6.0 0.00 0.00 0.00 65 1016.6
20260901144004 85 285 3.0 6.0 0.00 0.00 0.00 66 1016.6
20260901143904 85 285 3.0 6.0 0.00 0.00 0.00 66 1016.6
20260901143804 85 285 3.0 6.0 0.00 0.00 0.00 66 1016.6
20260901143704 85 281 3.0 5.0 0.00 0.00 0.00 66 1016.7
20260901143604 85 275 3.0 5.0 0.00 0.00 0.00 66 1016.6
20260901143504 85 271 3.0 5.0 0.00 0.00 0.00 66 1016.7
20260901143404 85 269 3.0 5.0 0.00 0.00 0.00 66 1016.7
20260901143304 85 266 3.0 5.0 0.00 0.00 0.00 67 1016.7
20260901143204 85 261 2.0 5.0 0.00 0.00 0.00 68 1016.8
20260901143103 84 256 2.0 5.0 0.00 0.00 0.00 68 1016.8
20260901143004 84 254 2.0 5.0 0.00 0.00 0.00 68 1016.8
20260901142904 84 247 2.0 5.0 0.00 0.00 0.00 68 1016.7
20260901142805 84 242 3.0 5.0 0.00 0.00 0.00 68 1016.8
20260901142704 84 246 3.0 5.0 0.00 0.00 0.00 68 1016.7
20260901142604 84 248 3.0 5.0 0.00 0.00 0.00 69 1016.7
20260901142504 84 252 3.0 5.0 0.00 0.00 0.00 68 1016.7
20260901142404 84 253 3.0 5.0 0.00 0.00 0.00 69 1016.7
20260901142204 84 255 3.0 8.0 0.00 0.00 0.00 68 1016.7
20260901142104 84 257 3.0 8.0 0.00 0.00 0.00 68 1016.7
20260901142005 84 253 3.0 8.0 0.00 0.00 0.00 69 1016.7
20260901141904 84 250 3.0 8.0 0.00 0.00 0.00 69 1016.7
20260901141804 84 248 3.0 8.0 0.00 0.00 0.00 68 1016.7
20260901141703 84 241 3.0 8.0 0.00 0.00 0.00 68 1016.8
20260901141604 84 236 3.0 8.0 0.00 0.00 0.00 68 1016.7
20260901141504 84 228 3.0 8.0 0.00 0.00 0.00 68 1016.8
20260901141407 84 226 3.0 8.0 0.00 0.00 0.00 68 1016.8
20260901141304 84 228 3.0 8.0 0.00 0.00 0.00 68 1016.8
20260901141204 84 217 2.0 6.0 0.00 0.00 0.00 68 1016.8
20260901141104 84 210 2.0 6.0 0.00 0.00 0.00 69 1016.8
20260901141004 84 205 2.0 6.0 0.00 0.00 0.00 69 1016.8
20260901140904 84 201 2.0 6.0 0.00 0.00 0.00 69 1016.8
20260901140803 84 200 2.0 7.0 0.00 0.00 0.00 69 1016.8
20260901140704 84 201 3.0 7.0 0.00 0.00 0.00 70 1016.8
20260901140604 83 196 3.0 7.0 0.00 0.00 0.00 70 1016.8
20260901140504 83 190 3.0 7.0 0.00 0.00 0.00 70 1016.7
20260901140404 83 187 3.0 7.0 0.00 0.00 0.00 71 1016.8
20260901140304 83 182 3.0 7.0 0.00 0.00 0.00 71 1016.8
20260901140204 83 178 3.0 7.0 0.00 0.00 0.00 71 1016.8
20260901140104 83 176 3.0 7.0 0.00 0.00 0.00 71 1016.8
20260901140004 83 174 3.0 7.0 0.00 0.00 0.00 70 1016.8
20260901135904 83 177 3.0 7.0 0.00 0.00 0.00 71 1016.8
20260901135804 83 174 2.0 7.0 0.00 0.00 0.00 70 1016.8
20260901135704 83 168 2.0 7.0 0.00 0.00 0.00 70 1016.7
20260901135605 83 162 2.0 7.0 0.00 0.00 0.00 71 1016.7
20260901135504 82 157 3.0 7.0 0.00 0.00 0.00 71 1016.7
20260901135204 82 148 3.0 7.0 0.00 0.00 0.00 71 1016.7
20260901135004 82 150 2.0 7.0 0.00 0.00 0.00 71 1016.6
20260901134904 82 148 2.0 7.0 0.00 0.00 0.00 72 1016.6
20260901134804 82 146 2.0 7.0 0.00 0.00 0.00 72 1016.6
20260901134704 82 144 2.0 6.0 0.00 0.00 0.00 72 1016.6
20260901134604 82 150 2.0 6.0 0.00 0.00 0.00 72 1016.7
20260901134504 82 156 2.0 6.0 0.00 0.00 0.00 72 1016.6
20260901134403 82 161 2.0 4.0 0.00 0.00 0.00 72 1016.7
20260901134204 82 175 2.0 4.0 0.00 0.00 0.00 73 1016.7
20260901134104 82 179 2.0 4.0 0.00 0.00 0.00 73 1016.7
20260901134004 82 185 2.0 5.0 0.00 0.00 0.00 73 1016.7
20260901133904 82 193 2.0 5.0 0.00 0.00 0.00 73 1016.7
20260901133804 82 200 2.0 5.0 0.00 0.00 0.00 73 1016.7
20260901133604 81 204 2.0 5.0 0.00 0.00 0.00 73 1016.6
20260901133504 81 208 2.0 5.0 0.00 0.00 0.00 73 1016.6
20260901133204 81 208 3.0 5.0 0.00 0.00 0.00 74 1016.6
20260901133004 81 203 3.0 5.0 0.00 0.00 0.00 74 1016.7
20260901132804 81 200 2.0 5.0 0.00 0.00 0.00 74 1016.6
20260901132604 81 204 3.0 5.0 0.00 0.00 0.00 74 1016.6
20260901132503 81 204 2.0 5.0 0.00 0.00 0.00 74 1016.6
20260901132404 80 203 2.0 5.0 0.00 0.00 0.00 74 1016.6
20260901132307 80 205 2.0 4.0 0.00 0.00 0.00 74 1016.6
20260901132205 81 209 2.0 5.0 0.00 0.00 0.00 74 1016.7
20260901132104 81 214 2.0 5.0 0.00 0.00 0.00 74 1016.6
20260901131904 81 219 2.0 6.0 0.00 0.00 0.00 74 1016.6
20260901131804 81 221 2.0 6.0 0.00 0.00 0.00 74 1016.5
20260901131704 80 224 2.0 6.0 0.00 0.00 0.00 75 1016.5
20260901131604 80 223 1.0 6.0 0.00 0.00 0.00 75 1016.5
20260901131504 80 223 1.0 6.0 0.00 0.00 0.00 75 1016.5
20260901131204 80 223 0.0 6.0 0.00 0.00 0.00 76 1016.5
20260901131103 80 226 0.0 6.0 0.00 0.00 0.00 76 1016.5
20260901131004 80 0 0.0 0.0 0.00 0.00 0.00 76 1016.5
20260901130904 80 0 0.0 0.0 0.00 0.00 0.00 77 1016.4
20260901130805 80 0 0.0 0.0 0.00 0.00 0.00 77 1016.4
20260901130703 79 0 0.0 0.0 0.00 0.00 0.00 77 1016.3
20260901130404 79 0 0.0 0.0 0.00 0.00 0.00 77 1016.3
20260901130303 79 0 0.0 0.0 0.00 0.00 0.00 77 1016.4
20260901130104 79 0 0.0 0.0 0.00 0.00 0.00 78 1016.2
20260901130004 78 0 0.0 0.0 0.00 0.00 0.00 79 1016.3
20260901125904 78 0 0.0 0.0 0.00 0.00 0.00 79 1016.2
20260901125803 78 0 0.0 0.0 0.00 0.00 0.00 79 1016.2
20260901125704 78 0 0.0 0.0 0.00 0.00 0.00 79 1016.2
20260901125604 78 0 0.0 0.0 0.00 0.00 0.00 80 1016.1
20260901125504 78 0 0.0 0.0 0.00 0.00 0.00 80 1016.2
20260901125405 77 0 0.0 0.0 0.00 0.00 0.00 80 1016.1
20260901125308 77 0 0.0 0.0 0.00 0.00 0.00 80 1016.1
20260901125204 77 0 0.0 0.0 0.00 0.00 0.00 80 1016.1
20260901125004 77 0 0.0 0.0 0.00 0.00 0.00 81 1016.1
20260901124904 77 0 0.0 0.0 0.00 0.00 0.00 81 1016.0
20260901124804 77 0 0.0 0.0 0.00 0.00 0.00 81 1016.0
20260901124704 77 0 0.0 0.0 0.00 0.00 0.00 81 1016.1
20260901124604 77 0 0.0 0.0 0.00 0.00 0.00 81 1016.0
20260901124505 76 0 0.0 0.0 0.00 0.00 0.00 81 1016.0
20260901124404 76 0 0.0 0.0 0.00 0.00 0.00 81 1016.0
20260901124304 76 0 0.0 0.0 0.00 0.00 0.00 81 1016.0
20260901124203 76 0 0.0 0.0 0.00 0.00 0.00 81 1016.0
20260901124104 76 0 0.0 0.0 0.00 0.00 0.00 81 1016.0
20260901124003 76 0 0.0 0.0 0.00 0.00 0.00 81 1016.0
20260901123904 76 0 0.0 0.0 0.00 0.00 0.00 81 1015.9
20260901123804 76 0 0.0 0.0 0.00 0.00 0.00 81 1016.0
20260901123704 76 0 0.0 0.0 0.00 0.00 0.00 81 1016.0
20260901123604 76 0 0.0 0.0 0.00 0.00 0.00 81 1016.0
20260901123504 76 0 0.0 0.0 0.00 0.00 0.00 81 1015.9
20260901123403 76 0 0.0 0.0 0.00 0.00 0.00 81 1015.9
20260901123204 76 0 0.0 0.0 0.00 0.00 0.00 81 1015.9
20260901123103 76 0 0.0 0.0 0.00 0.00 0.00 81 1015.9
20260901123005 76 0 0.0 0.0 0.00 0.00 0.00 81 1015.9
20260901122804 76 0 0.0 0.0 0.00 0.00 0.00 80 1015.8
20260901122704 76 0 0.0 0.0 0.00 0.00 0.00 80 1015.8
20260901122604 76 0 0.0 0.0 0.00 0.00 0.00 80 1015.8
20260901122504 76 0 0.0 0.0 0.00 0.00 0.00 80 1015.8
20260901122404 76 0 0.0 0.0 0.00 0.00 0.00 80 1015.8
20260901122306 76 0 0.0 0.0 0.00 0.00 0.00 80 1015.8
20260901122204 76 0 0.0 0.0 0.00 0.00 0.00 80 1015.8
20260901122104 76 0 0.0 0.0 0.00 0.00 0.00 80 1015.8
20260901122004 76 0 0.0 0.0 0.00 0.00 0.00 80 1015.8
20260901121904 76 0 0.0 0.0 0.00 0.00 0.00 81 1015.8
20260901121703 76 0 0.0 0.0 0.00 0.00 0.00 81 1015.8
20260901121604 76 0 0.0 0.0 0.00 0.00 0.00 81 1015.8
20260901121405 76 0 0.0 0.0 0.00 0.00 0.00 81 1015.8
20260901121204 76 0 0.0 0.0 0.00 0.00 0.00 80 1015.8
20260901121104 76 0 0.0 0.0 0.00 0.00 0.00 80 1015.7
20260901121004 76 0 0.0 0.0 0.00 0.00 0.00 80 1015.8
20260901120904 76 0 0.0 0.0 0.00 0.00 0.00 81 1015.7
20260901120704 76 0 0.0 0.0 0.00 0.00 0.00 81 1015.7
20260901120603 76 0 0.0 0.0 0.00 0.00 0.00 80 1015.8
20260901120403 76 0 0.0 0.0 0.00 0.00 0.00 80 1015.8
20260901120204 76 0 0.0 0.0 0.00 0.00 0.00 80 1015.8
20260901120004 77 0 0.0 0.0 0.00 0.00 0.00 80 1015.7
20260901115904 77 0 0.0 0.0 0.00 0.00 0.00 80 1015.7
20260901115804 77 0 0.0 0.0 0.00 0.00 0.00 80 1015.8
20260901115704 77 0 0.0 0.0 0.00 0.00 0.00 80 1015.7
20260901115604 77 0 0.0 0.0 0.00 0.00 0.00 80 1015.7
20260901115504 77 0 0.0 0.0 0.00 0.00 0.00 80 1015.7
20260901115404 77 0 0.0 0.0 0.00 0.00 0.00 80 1015.7
20260901115306 77 0 0.0 0.0 0.00 0.00 0.00 80 1015.7
20260901115203 77 0 0.0 0.0 0.00 0.00 0.00 80 1015.7
20260901115104 77 0 0.0 0.0 0.00 0.00 0.00 80 1015.7
20260901115004 77 0 0.0 0.0 0.00 0.00 0.00 80 1015.7
20260901114904 77 0 0.0 0.0 0.00 0.00 0.00 80 1015.7
20260901114803 77 0 0.0 0.0 0.00 0.00 0.00 80 1015.7
20260901114704 77 0 0.0 0.0 0.00 0.00 0.00 80 1015.7
20260901114603 77 0 0.0 0.0 0.00 0.00 0.00 80 1015.7
20260901114404 76 0 0.0 0.0 0.00 0.00 0.00 80 1015.7
20260901114303 76 0 0.0 0.0 0.00 0.00 0.00 80 1015.7
20260901114204 76 175 0.0 2.0 0.00 0.00 0.00 80 1015.6
20260901114104 76 175 0.0 2.0 0.00 0.00 0.00 80 1015.6
20260901114004 76 174 0.0 2.0 0.00 0.00 0.00 79 1015.6
20260901113904 76 175 1.0 2.0 0.00 0.00 0.00 80 1015.6
20260901113803 77 178 1.0 2.0 0.00 0.00 0.00 80 1015.6
20260901113704 77 181 1.0 2.0 0.00 0.00 0.00 79 1015.7
20260901113604 77 183 1.0 2.0 0.00 0.00 0.00 79 1015.7
20260901113503 77 183 1.0 2.0 0.00 0.00 0.00 79 1015.7
20260901113404 77 185 1.0 2.0 0.00 0.00 0.00 79 1015.6
20260901113204 77 189 1.0 2.0 0.00 0.00 0.00 79 1015.7
20260901113103 77 191 1.0 2.0 0.00 0.00 0.00 79 1015.7
20260901113004 77 192 1.0 2.0 0.00 0.00 0.00 79 1015.6
20260901112903 77 192 1.0 2.0 0.00 0.00 0.00 79 1015.6
20260901112804 77 189 1.0 2.0 0.00 0.00 0.00 79 1015.6
20260901112703 77 184 1.0 2.0 0.00 0.00 0.00 79 1015.6
20260901112604 77 179 1.0 2.0 0.00 0.00 0.00 79 1015.6
20260901112503 77 176 1.0 2.0 0.00 0.00 0.00 79 1015.6
20260901112306 77 168 1.0 3.0 0.00 0.00 0.00 79 1015.6
20260901112204 77 171 1.0 3.0 0.00 0.00 0.00 79 1015.6
20260901112103 77 171 1.0 3.0 0.00 0.00 0.00 79 1015.6
20260901112004 77 172 1.0 3.0 0.00 0.00 0.00 79 1015.6
20260901111904 77 173 1.0 3.0 0.00 0.00 0.00 79 1015.6
20260901111804 77 177 1.0 4.0 0.00 0.00 0.00 79 1015.6
20260901111603 77 185 1.0 4.0 0.00 0.00 0.00 79 1015.6
20260901111504 77 189 2.0 4.0 0.00 0.00 0.00 79 1015.6
20260901111403 77 192 2.0 5.0 0.00 0.00 0.00 79 1015.6
20260901111304 77 195 2.0 5.0 0.00 0.00 0.00 79 1015.6
20260901111204 77 196 2.0 5.0 0.00 0.00 0.00 79 1015.6
20260901111104 77 199 2.0 5.0 0.00 0.00 0.00 79 1015.7
20260901111004 77 200 2.0 5.0 0.00 0.00 0.00 78 1015.7
20260901110904 77 200 2.0 5.0 0.00 0.00 0.00 78 1015.7
20260901110703 77 200 1.0 5.0 0.00 0.00 0.00 78 1015.7
20260901110604 77 200 1.0 5.0 0.00 0.00 0.00 78 1015.7
20260901110503 78 200 1.0 5.0 0.00 0.00 0.00 78 1015.7
20260901110404 77 201 1.0 4.0 0.00 0.00 0.00 78 1015.7
20260901110303 78 200 0.0 4.0 0.00 0.00 0.00 78 1015.6
20260901110204 78 204 0.0 4.0 0.00 0.00 0.00 78 1015.7
20260901110103 77 200 0.0 3.0 0.00 0.00 0.00 78 1015.7
20260901110004 78 0 0.0 0.0 0.00 0.00 0.00 78 1015.6
20260901105903 78 0 0.0 0.0 0.00 0.00 0.00 78 1015.7
20260901105804 78 0 0.0 0.0 0.00 0.00 0.00 78 1015.7
20260901105703 78 0 0.0 0.0 0.00 0.00 0.00 78 1015.6
20260901105503 78 0 0.0 0.0 0.00 0.00 0.00 78 1015.6
20260901105404 78 0 0.0 0.0 0.00 0.00 0.00 78 1015.6
20260901105305 78 0 0.0 0.0 0.00 0.00 0.00 78 1015.6
20260901105204 78 0 0.0 0.0 0.00 0.00 0.00 78 1015.5
20260901105004 77 0 0.0 0.0 0.00 0.00 0.00 78 1015.5
20260901104903 77 0 0.0 0.0 0.00 0.00 0.00 78 1015.6
20260901104804 77 0 0.0 0.0 0.00 0.00 0.00 78 1015.6
20260901104603 77 0 0.0 0.0 0.00 0.00 0.00 78 1015.6
20260901104504 77 0 0.0 0.0 0.00 0.00 0.00 78 1015.6
20260901104204 77 0 0.0 0.0 0.00 0.00 0.00 78 1015.6
20260901104003 77 0 0.0 0.0 0.00 0.00 0.00 77 1015.5
20260901103904 77 0 0.0 0.0 0.00 0.00 0.00 77 1015.5
20260901103803 77 0 0.0 0.0 0.00 0.00 0.00 77 1015.5
20260901103503 78 0 0.0 0.0 0.00 0.00 0.00 77 1015.5
20260901103403 78 0 0.0 0.0 0.00 0.00 0.00 77 1015.5
20260901103207 78 0 0.0 0.0 0.00 0.00 0.00 77 1015.5
20260901103106 78 0 0.0 0.0 0.00 0.00 0.00 77 1015.5
20260901103007 78 0 0.0 0.0 0.00 0.00 0.00 77 1015.5
20260901102906 78 0 0.0 0.0 0.00 0.00 0.00 77 1015.5
20260901102807 78 0 0.0 0.0 0.00 0.00 0.00 77 1015.5
20260901102707 78 0 0.0 0.0 0.00 0.00 0.00 77 1015.4
20260901102607 78 0 0.0 0.0 0.00 0.00 0.00 76 1015.4
20260901102506 78 0 0.0 0.0 0.00 0.00 0.00 76 1015.4
20260901102407 78 0 0.0 0.0 0.00 0.00 0.00 76 1015.4
20260901102306 78 0 0.0 0.0 0.00 0.00 0.00 76 1015.4
20260901102207 78 0 0.0 0.0 0.00 0.00 0.00 76 1015.4
20260901102106 78 0 0.0 0.0 0.00 0.00 0.00 76 1015.4
20260901102007 78 0 0.0 0.0 0.00 0.00 0.00 76 1015.4
20260901101906 78 0 0.0 0.0 0.00 0.00 0.00 76 1015.4
20260901101807 78 0 0.0 0.0 0.00 0.00 0.00 76 1015.4
20260901101707 78 0 0.0 0.0 0.00 0.00 0.00 76 1015.3
20260901101607 78 0 0.0 0.0 0.00 0.00 0.00 76 1015.3
20260901101506 78 0 0.0 0.0 0.00 0.00 0.00 76 1015.3
20260901101307 78 0 0.0 0.0 0.00 0.00 0.00 76 1015.4
20260901101207 78 0 0.0 0.0 0.00 0.00 0.00 76 1015.3
20260901101106 78 0 0.0 0.0 0.00 0.00 0.00 76 1015.4
20260901101006 78 0 0.0 0.0 0.00 0.00 0.00 76 1015.4
20260901100906 78 0 0.0 0.0 0.00 0.00 0.00 76 1015.4
20260901100806 78 0 0.0 0.0 0.00 0.00 0.00 76 1015.4
20260901100706 78 0 0.0 0.0 0.00 0.00 0.00 76 1015.4
20260901100607 78 0 0.0 0.0 0.00 0.00 0.00 76 1015.4
20260901100408 78 0 0.0 0.0 0.00 0.00 0.00 76 1015.4
20260901100306 78 0 0.0 0.0 0.00 0.00 0.00 76 1015.4
20260901100206 78 0 0.0 0.0 0.00 0.00 0.00 76 1015.4
20260901100106 78 0 0.0 0.0 0.00 0.00 0.00 76 1015.4
20260901100007 78 0 0.0 0.0 0.00 0.00 0.00 75 1015.4
20260901095906 78 0 0.0 0.0 0.00 0.00 0.00 76 1015.4
20260901095706 78 0 0.0 0.0 0.00 0.00 0.00 75 1015.4
20260901095606 78 0 0.0 0.0 0.00 0.00 0.00 75 1015.4
20260901095506 78 0 0.0 0.0 0.00 0.00 0.00 75 1015.4
20260901095407 78 0 0.0 0.0 0.00 0.00 0.00 75 1015.4
20260901095307 78 0 0.0 0.0 0.00 0.00 0.00 75 1015.4
20260901095207 78 0 0.0 0.0 0.00 0.00 0.00 75 1015.5
20260901095106 78 0 0.0 0.0 0.00 0.00 0.00 75 1015.5
20260901095008 78 0 0.0 0.0 0.00 0.00 0.00 75 1015.5
20260901094906 78 0 0.0 0.0 0.00 0.00 0.00 75 1015.5
20260901094806 78 0 0.0 0.0 0.00 0.00 0.00 75 1015.4
20260901094707 78 0 0.0 0.0 0.00 0.00 0.00 75 1015.5
20260901094507 78 0 0.0 0.0 0.00 0.00 0.00 75 1015.5
20260901094406 78 0 0.0 0.0 0.00 0.00 0.00 75 1015.5
20260901094306 78 238 0.0 1.0 0.00 0.00 0.00 75 1015.5
20260901094206 78 230 0.0 3.0 0.00 0.00 0.00 75 1015.5
20260901094106 78 229 1.0 4.0 0.00 0.00 0.00 75 1015.5
20260901094007 78 227 1.0 4.0 0.00 0.00 0.00 75 1015.4
20260901093906 78 223 1.0 4.0 0.00 0.00 0.00 75 1015.5
20260901093706 79 222 2.0 4.0 0.00 0.00 0.00 75 1015.5
20260901093607 79 221 2.0 4.0 0.00 0.00 0.00 75 1015.5
20260901093506 79 220 2.0 4.0 0.00 0.00 0.00 75 1015.5
20260901093407 79 219 2.0 4.0 0.00 0.00 0.00 75 1015.5
20260901093306 79 218 2.0 4.0 0.00 0.00 0.00 75 1015.5
20260901093208 79 216 2.0 4.0 0.00 0.00 0.00 74 1015.5
20260901093106 79 214 2.0 4.0 0.00 0.00 0.00 74 1015.5
20260901093006 79 211 2.0 4.0 0.00 0.00 0.00 75 1015.4
20260901092906 79 209 2.0 4.0 0.00 0.00 0.00 75 1015.4
20260901092807 79 208 2.0 4.0 0.00 0.00 0.00 75 1015.5
20260901092707 79 203 1.0 4.0 0.00 0.00 0.00 75 1015.5
20260901092607 79 199 1.0 4.0 0.00 0.00 0.00 75 1015.5
20260901092406 79 194 1.0 4.0 0.00 0.00 0.00 75 1015.5
20260901092307 79 192 1.0 4.0 0.00 0.00 0.00 75 1015.5
20260901092207 79 189 1.0 4.0 0.00 0.00 0.00 75 1015.6
20260901092106 79 187 1.0 3.0 0.00 0.00 0.00 75 1015.6
20260901092007 79 187 1.0 3.0 0.00 0.00 0.00 75 1015.5
20260901091906 79 187 2.0 3.0 0.00 0.00 0.00 74 1015.5
20260901091807 79 187 2.0 3.0 0.00 0.00 0.00 75 1015.5
20260901091706 79 189 2.0 3.0 0.00 0.00 0.00 75 1015.4
20260901091607 79 187 2.0 3.0 0.00 0.00 0.00 75 1015.5
20260901091506 79 186 2.0 3.0 0.00 0.00 0.00 75 1015.5
20260901091206 79 184 2.0 4.0 0.00 0.00 0.00 75 1015.5
20260901091108 79 184 2.0 4.0 0.00 0.00 0.00 75 1015.5
20260901091006 79 184 2.0 4.0 0.00 0.00 0.00 75 1015.5
20260901090906 79 184 2.0 4.0 0.00 0.00 0.00 75 1015.5
20260901090806 79 184 2.0 4.0 0.00 0.00 0.00 75 1015.5
20260901090706 78 184 2.0 4.0 0.00 0.00 0.00 75 1015.5
20260901090607 79 184 2.0 4.0 0.00 0.00 0.00 75 1015.5
20260901090506 78 184 2.0 4.0 0.00 0.00 0.00 75 1015.5
20260901090406 78 181 2.0 4.0 0.00 0.00 0.00 75 1015.5
20260901090306 78 178 2.0 4.0 0.00 0.00 0.00 75 1015.5
20260901090106 78 174 2.0 4.0 0.00 0.00 0.00 75 1015.4
20260901090007 78 171 2.0 4.0 0.00 0.00 0.00 75 1015.4
20260901085807 79 168 2.0 4.0 0.00 0.00 0.00 75 1015.4
20260901085706 78 166 2.0 4.0 0.00 0.00 0.00 75 1015.4
20260901085506 79 165 2.0 4.0 0.00 0.00 0.00 75 1015.4
20260901085406 79 164 2.0 4.0 0.00 0.00 0.00 75 1015.3
20260901085306 79 164 2.0 4.0 0.00 0.00 0.00 75 1015.3
20260901085106 79 164 2.0 3.0 0.00 0.00 0.00 74 1015.3
20260901085006 79 165 2.0 4.0 0.00 0.00 0.00 74 1015.3
20260901084907 79 166 2.0 4.0 0.00 0.00 0.00 74 1015.3
20260901084606 79 169 2.0 4.0 0.00 0.00 0.00 74 1015.2
20260901084506 79 169 2.0 4.0 0.00 0.00 0.00 74 1015.2
20260901084406 79 169 2.0 4.0 0.00 0.00 0.00 74 1015.2
20260901084306 79 170 2.0 4.0 0.00 0.00 0.00 74 1015.2
20260901084206 79 171 2.0 4.0 0.00 0.00 0.00 74 1015.2
20260901084106 79 174 2.0 4.0 0.00 0.00 0.00 74 1015.2
20260901083906 79 182 1.0 3.0 0.00 0.00 0.00 73 1015.2
20260901083807 79 187 1.0 4.0 0.00 0.00 0.00 73 1015.2
20260901083706 79 190 2.0 4.0 0.00 0.00 0.00 73 1015.2
20260901083607 79 192 2.0 4.0 0.00 0.00 0.00 73 1015.1
20260901083507 79 193 2.0 4.0 0.00 0.00 0.00 73 1015.2
20260901083306 79 199 2.0 5.0 0.00 0.00 0.00 73 1015.2
20260901082906 79 200 2.0 5.0 0.00 0.00 0.00 73 1015.1
20260901082806 79 199 2.0 5.0 0.00 0.00 0.00 73 1015.1
20260901082506 79 198 2.0 5.0 0.00 0.00 0.00 73 1015.1
20260901082406 79 198 2.0 5.0 0.00 0.00 0.00 74 1015.1
20260901082206 79 198 2.0 5.0 0.00 0.00 0.00 74 1015.1
20260901082106 79 197 2.0 5.0 0.00 0.00 0.00 73 1015.1
20260901082006 79 198 2.0 5.0 0.00 0.00 0.00 74 1015.1
20260901081906 79 197 1.0 4.0 0.00 0.00 0.00 74 1015.1
20260901081707 79 194 1.0 4.0 0.00 0.00 0.00 74 1015.1
20260901081606 79 193 1.0 3.0 0.00 0.00 0.00 74 1015.1
20260901081506 79 192 1.0 3.0 0.00 0.00 0.00 74 1015.1
20260901081406 79 190 1.0 3.0 0.00 0.00 0.00 73 1015.1
20260901081306 79 188 2.0 3.0 0.00 0.00 0.00 73 1015.1
20260901081207 79 186 2.0 3.0 0.00 0.00 0.00 73 1015.2
20260901081106 79 182 2.0 3.0 0.00 0.00 0.00 73 1015.1
20260901081007 79 179 2.0 3.0 0.00 0.00 0.00 73 1015.2
20260901080906 79 175 2.0 3.0 0.00 0.00 0.00 73 1015.2
20260901080806 79 171 2.0 3.0 0.00 0.00 0.00 73 1015.2
20260901080706 79 166 2.0 3.0 0.00 0.00 0.00 73 1015.2
20260901080606 79 163 2.0 3.0 0.00 0.00 0.00 73 1015.2
20260901080506 79 162 2.0 4.0 0.00 0.00 0.00 73 1015.2
20260901080406 79 161 2.0 4.0 0.00 0.00 0.00 73 1015.2
20260901080206 79 158 2.0 4.0 0.00 0.00 0.00 73 1015.2
20260901080007 80 159 2.0 4.0 0.00 0.00 0.00 73 1015.2
20260901075806 80 162 2.0 4.0 0.00 0.00 0.00 73 1015.3
20260901075606 80 167 2.0 4.0 0.00 0.00 0.00 73 1015.2
20260901075506 80 173 2.0 4.0 0.00 0.00 0.00 73 1015.2
20260901075307 80 185 2.0 4.0 0.00 0.00 0.00 73 1015.1
20260901075206 80 188 2.0 4.0 0.00 0.00 0.00 73 1015.2
20260901075106 80 192 2.0 4.0 0.00 0.00 0.00 72 1015.2
20260901075006 80 189 2.0 4.0 0.00 0.00 0.00 72 1015.1
20260901074906 80 188 2.0 4.0 0.00 0.00 0.00 72 1015.2
20260901074807 80 186 2.0 4.0 0.00 0.00 0.00 72 1015.2
20260901074706 80 185 2.0 4.0 0.00 0.00 0.00 72 1015.2
20260901074606 80 183 2.0 4.0 0.00 0.00 0.00 72 1015.2
20260901074507 80 179 2.0 4.0 0.00 0.00 0.00 72 1015.2
20260901074406 80 176 2.0 4.0 0.00 0.00 0.00 72 1015.2
20260901074306 80 175 2.0 5.0 0.00 0.00 0.00 72 1015.2
20260901074206 80 178 2.0 5.0 0.00 0.00 0.00 72 1015.2
20260901074107 80 179 2.0 5.0 0.00 0.00 0.00 72 1015.1
20260901074006 80 184 2.0 5.0 0.00 0.00 0.00 72 1015.2
20260901073906 80 186 2.0 5.0 0.00 0.00 0.00 72 1015.2
20260901073707 80 188 2.0 5.0 0.00 0.00 0.00 72 1015.1
20260901073507 80 189 2.0 5.0 0.00 0.00 0.00 72 1015.1
20260901073406 80 189 2.0 5.0 0.00 0.00 0.00 72 1015.1
20260901073306 80 186 2.0 6.0 0.00 0.00 0.00 72 1015.1
20260901073206 80 183 2.0 6.0 0.00 0.00 0.00 72 1015.2
20260901073106 80 179 3.0 6.0 0.00 0.00 0.00 72 1015.2
20260901073006 80 177 2.0 6.0 0.00 0.00 0.00 72 1015.2
20260901072907 80 177 3.0 6.0 0.00 0.00 0.00 72 1015.2
20260901072806 80 177 2.0 6.0 0.00 0.00 0.00 72 1015.2
20260901072706 80 176 3.0 6.0 0.00 0.00 0.00 71 1015.2
20260901072606 80 175 3.0 6.0 0.00 0.00 0.00 71 1015.2
20260901072506 80 176 3.0 7.0 0.00 0.00 0.00 71 1015.2
20260901072406 80 175 3.0 7.0 0.00 0.00 0.00 71 1015.2
20260901072309 80 174 3.0 7.0 0.00 0.00 0.00 71 1015.2
20260901072206 80 174 3.0 8.0 0.00 0.00 0.00 71 1015.2
20260901072106 80 173 3.0 8.0 0.00 0.00 0.00 71 1015.2
20260901072006 80 173 4.0 8.0 0.00 0.00 0.00 71 1015.2
20260901071906 80 171 4.0 8.0 0.00 0.00 0.00 71 1015.2
20260901071806 80 170 4.0 8.0 0.00 0.00 0.00 71 1015.2
20260901071706 80 169 4.0 8.0 0.00 0.00 0.00 71 1015.2
20260901071606 80 169 4.0 8.0 0.00 0.00 0.00 71 1015.2
20260901071507 80 167 4.0 8.0 0.00 0.00 0.00 71 1015.2
20260901071406 80 165 4.0 8.0 0.00 0.00 0.00 71 1015.2
20260901071306 80 165 4.0 8.0 0.00 0.00 0.00 71 1015.2
20260901071206 80 162 3.0 7.0 0.00 0.00 0.00 71 1015.3
20260901071106 80 162 3.0 7.0 0.00 0.00 0.00 71 1015.2
20260901071006 80 160 3.0 7.0 0.00 0.00 0.00 71 1015.2
20260901070906 80 160 3.0 7.0 0.00 0.00 0.00 71 1015.2
20260901070806 80 160 3.0 7.0 0.00 0.00 0.00 71 1015.3
20260901070706 80 158 3.0 7.0 0.00 0.00 0.00 71 1015.2
20260901070606 80 158 3.0 7.0 0.00 0.00 0.00 71 1015.3
20260901070507 80 158 3.0 7.0 0.00 0.00 0.00 71 1015.2
20260901070406 80 159 2.0 7.0 0.00 0.00 0.00 71 1015.2
20260901070206 80 157 2.0 6.0 0.00 0.00 0.00 71 1015.3
20260901070106 80 155 2.0 6.0 0.00 0.00 0.00 71 1015.2
20260901070006 80 155 2.0 6.0 0.00 0.00 0.00 71 1015.2
20260901065806 80 152 2.0 6.0 0.00 0.00 0.00 71 1015.2
20260901065706 80 152 2.0 6.0 0.00 0.00 0.00 70 1015.2
20260901065606 80 151 2.0 6.0 0.00 0.00 0.00 70 1015.2
20260901065506 80 150 2.0 6.0 0.00 0.00 0.00 70 1015.3
20260901065406 80 149 2.0 6.0 0.00 0.00 0.00 70 1015.3
20260901065307 80 152 2.0 6.0 0.00 0.00 0.00 70 1015.2
20260901065206 80 151 2.0 6.0 0.00 0.00 0.00 70 1015.3
20260901065006 81 150 2.0 6.0 0.00 0.00 0.00 70 1015.3
20260901064907 81 150 2.0 6.0 0.00 0.00 0.00 70 1015.3
20260901064806 81 149 2.0 6.0 0.00 0.00 0.00 70 1015.3
20260901064706 81 149 2.0 6.0 0.00 0.00 0.00 70 1015.3
20260901064606 80 150 2.0 6.0 0.00 0.00 0.00 70 1015.3
20260901064506 81 149 1.0 6.0 0.00 0.00 0.00 70 1015.2
20260901064306 81 141 1.0 6.0 0.00 0.00 0.00 70 1015.2
20260901064207 81 139 1.0 6.0 0.00 0.00 0.00 70 1015.2
20260901064106 81 135 1.0 3.0 0.00 0.00 0.00 70 1015.1
20260901064006 81 135 1.0 3.0 0.00 0.00 0.00 70 1015.1
20260901063906 81 135 1.0 4.0 0.00 0.00 0.00 70 1015.1
20260901063806 81 136 1.0 4.0 0.00 0.00 0.00 69 1015.1
20260901063706 81 138 1.0 4.0 0.00 0.00 0.00 69 1015.2
20260901063606 81 139 2.0 4.0 0.00 0.00 0.00 69 1015.2
20260901063506 81 141 2.0 4.0 0.00 0.00 0.00 69 1015.2
20260901063406 81 142 2.0 4.0 0.00 0.00 0.00 69 1015.2
20260901063306 81 144 2.0 4.0 0.00 0.00 0.00 69 1015.2
20260901063205 81 146 2.0 4.0 0.00 0.00 0.00 69 1015.3
20260901063106 81 148 2.0 4.0 0.00 0.00 0.00 69 1015.2
20260901063006 81 150 2.0 4.0 0.00 0.00 0.00 68 1015.2
20260901062906 81 152 2.0 4.0 0.00 0.00 0.00 68 1015.2
20260901062806 81 156 2.0 4.0 0.00 0.00 0.00 68 1015.2
20260901062706 81 158 2.0 4.0 0.00 0.00 0.00 68 1015.2
20260901062606 81 158 2.0 4.0 0.00 0.00 0.00 68 1015.1
20260901062507 81 159 2.0 4.0 0.00 0.00 0.00 68 1015.1
20260901062406 82 160 2.0 4.0 0.00 0.00 0.00 68 1015.1
20260901062310 82 160 2.0 4.0 0.00 0.00 0.00 68 1015.1
20260901062206 82 160 2.0 4.0 0.00 0.00 0.00 68 1015.0
20260901062106 82 158 2.0 4.0 0.00 0.00 0.00 68 1015.0
20260901062006 82 160 3.0 4.0 0.00 0.00 0.00 68 1015.0
20260901061906 82 160 3.0 4.0 0.00 0.00 0.00 67 1015.0
20260901061806 82 158 3.0 4.0 0.00 0.00 0.00 67 1015.0
20260901061707 82 157 3.0 4.0 0.00 0.00 0.00 67 1015.0
20260901061606 82 158 3.0 6.0 0.00 0.00 0.00 67 1015.0
20260901061506 82 157 3.0 6.0 0.00 0.00 0.00 67 1015.0
20260901061406 82 156 3.0 6.0 0.00 0.00 0.00 67 1015.0
20260901061306 82 155 3.0 6.0 0.00 0.00 0.00 67 1014.9
20260901061106 82 155 3.0 6.0 0.00 0.00 0.00 67 1014.9
20260901061006 82 155 3.0 6.0 0.00 0.00 0.00 67 1014.9
20260901060906 82 155 3.0 6.0 0.00 0.00 0.00 67 1015.0
20260901060805 82 158 3.0 7.0 0.00 0.00 0.00 67 1014.9
20260901060706 82 158 3.0 7.0 0.00 0.00 0.00 66 1015.0
20260901060606 82 159 3.0 7.0 0.00 0.00 0.00 66 1015.0
20260901060506 82 160 3.0 7.0 0.00 0.00 0.00 66 1015.0
20260901060406 82 162 3.0 7.0 0.00 0.00 0.00 66 1015.0
20260901060306 82 164 3.0 7.0 0.00 0.00 0.00 66 1014.9
20260901060206 82 166 3.0 7.0 0.00 0.00 0.00 66 1014.9
20260901060007 82 165 3.0 7.0 0.00 0.00 0.00 66 1014.9
20260901055906 82 165 4.0 7.0 0.00 0.00 0.00 66 1014.9
20260901055805 82 164 3.0 7.0 0.00 0.00 0.00 66 1014.9
20260901055706 82 165 3.0 7.0 0.00 0.00 0.00 66 1014.9
20260901055606 82 167 4.0 7.0 0.00 0.00 0.00 66 1014.9
20260901055507 83 168 4.0 7.0 0.00 0.00 0.00 66 1014.8
20260901055406 82 168 4.0 7.0 0.00 0.00 0.00 66 1014.9
20260901055306 83 169 4.0 7.0 0.00 0.00 0.00 66 1014.8
20260901055206 83 169 4.0 7.0 0.00 0.00 0.00 65 1014.9
20260901055006 83 173 4.0 7.0 0.00 0.00 0.00 65 1014.9
20260901054906 83 173 4.0 7.0 0.00 0.00 0.00 65 1014.9
20260901054806 83 174 4.0 7.0 0.00 0.00 0.00 65 1014.8
20260901054706 83 175 4.0 7.0 0.00 0.00 0.00 65 1014.8
20260901054606 83 175 4.0 7.0 0.00 0.00 0.00 65 1014.9
20260901054505 83 174 4.0 8.0 0.00 0.00 0.00 65 1014.9
20260901054406 83 173 4.0 8.0 0.00 0.00 0.00 65 1014.8
20260901054307 83 171 4.0 8.0 0.00 0.00 0.00 65 1014.8
20260901054206 83 172 4.0 8.0 0.00 0.00 0.00 65 1014.8
20260901054106 83 169 4.0 9.0 0.00 0.00 0.00 65 1014.8
20260901054005 83 169 4.0 9.0 0.00 0.00 0.00 65 1014.7
20260901053906 83 168 4.0 9.0 0.00 0.00 0.00 65 1014.7
20260901053706 83 164 4.0 9.0 0.00 0.00 0.00 65 1014.7
20260901053305 83 160 4.0 9.0 0.00 0.00 0.00 64 1014.7
20260901053206 83 158 4.0 9.0 0.00 0.00 0.00 64 1014.7
20260901053108 83 158 4.0 9.0 0.00 0.00 0.00 64 1014.7
20260901053006 83 158 4.0 9.0 0.00 0.00 0.00 64 1014.7
20260901052906 83 159 4.0 9.0 0.00 0.00 0.00 64 1014.7
20260901052806 83 161 4.0 9.0 0.00 0.00 0.00 64 1014.7
20260901052706 83 162 5.0 9.0 0.00 0.00 0.00 64 1014.7
20260901052606 83 162 5.0 9.0 0.00 0.00 0.00 64 1014.7
20260901052506 83 161 5.0 11.0 0.00 0.00 0.00 64 1014.7
20260901052405 83 161 5.0 11.0 0.00 0.00 0.00 64 1014.7
20260901052205 83 161 6.0 11.0 0.00 0.00 0.00 64 1014.8
20260901052106 83 161 6.0 11.0 0.00 0.00 0.00 63 1014.7
20260901052005 83 161 6.0 11.0 0.00 0.00 0.00 63 1014.7
20260901051606 83 162 5.0 11.0 0.00 0.00 0.00 63 1014.7
20260901051506 83 163 5.0 9.0 0.00 0.00 0.00 63 1014.6
20260901051406 83 163 5.0 9.0 0.00 0.00 0.00 63 1014.7
20260901051306 83 163 5.0 9.0 0.00 0.00 0.00 63 1014.7
20260901051206 83 164 5.0 9.0 0.00 0.00 0.00 63 1014.6
20260901051106 83 165 6.0 9.0 0.00 0.00 0.00 62 1014.6
20260901051006 83 164 6.0 9.0 0.00 0.00 0.00 62 1014.6
20260901050906 83 164 5.0 9.0 0.00 0.00 0.00 62 1014.6
20260901050806 84 163 5.0 9.0 0.00 0.00 0.00 62 1014.6
20260901050706 84 164 5.0 9.0 0.00 0.00 0.00 62 1014.6
20260901050606 84 164 5.0 9.0 0.00 0.00 0.00 62 1014.6
20260901050507 84 163 5.0 9.0 0.00 0.00 0.00 62 1014.5
20260901050406 84 164 5.0 9.0 0.00 0.00 0.00 62 1014.5
20260901050306 84 167 6.0 10.0 0.00 0.00 0.00 61 1014.5
20260901050205 84 167 6.0 10.0 0.00 0.00 0.00 61 1014.5
20260901050006 84 168 6.0 11.0 0.00 0.00 0.00 61 1014.6
20260901045906 84 167 7.0 12.0 0.00 0.00 0.00 61 1014.5
20260901045706 84 168 7.0 12.0 0.00 0.00 0.00 61 1014.5
20260901045605 84 167 7.0 12.0 0.00 0.00 0.00 61 1014.5
20260901045405 84 168 6.0 12.0 0.00 0.00 0.00 60 1014.5
20260901045307 84 166 6.0 12.0 0.00 0.00 0.00 60 1014.5
20260901045106 84 167 6.0 12.0 0.00 0.00 0.00 60 1014.5
20260901044906 84 169 5.0 11.0 0.00 0.00 0.00 60 1014.4
20260901044607 83 167 5.0 11.0 0.00 0.00 0.00 59 1014.4
20260901044507 83 166 4.0 9.0 0.00 0.00 0.00 59 1014.4
20260901044406 83 165 4.0 9.0 0.00 0.00 0.00 59 1014.4
20260901044305 83 164 4.0 9.0 0.00 0.00 0.00 59 1014.4
20260901044206 83 163 4.0 9.0 0.00 0.00 0.00 59 1014.3
20260901044106 83 162 4.0 9.0 0.00 0.00 0.00 59 1014.4
20260901043906 83 158 4.0 9.0 0.00 0.00 0.00 58 1014.3
20260901043805 83 158 4.0 9.0 0.00 0.00 0.00 57 1014.4
20260901043706 83 157 4.0 9.0 0.00 0.00 0.00 57 1014.3
20260901043605 83 156 4.0 9.0 0.00 0.00 0.00 57 1014.3
20260901043406 83 155 4.0 9.0 0.00 0.00 0.00 57 1014.3
20260901043307 83 155 4.0 9.0 0.00 0.00 0.00 57 1014.3
20260901043206 83 154 4.0 9.0 0.00 0.00 0.00 56 1014.3
20260901043106 83 155 4.0 9.0 0.00 0.00 0.00 56 1014.3
20260901043006 83 154 4.0 9.0 0.00 0.00 0.00 55 1014.3
20260901042907 83 154 4.0 10.0 0.00 0.00 0.00 55 1014.3
20260901042806 84 154 4.0 10.0 0.00 0.00 0.00 55 1014.3
20260901042707 84 155 4.0 10.0 0.00 0.00 0.00 54 1014.3
20260901042606 84 155 4.0 10.0 0.00 0.00 0.00 54 1014.3
20260901042406 84 154 4.0 10.0 0.00 0.00 0.00 54 1014.3
20260901042306 84 153 4.0 10.0 0.00 0.00 0.00 53 1014.3
20260901042206 84 153 4.0 10.0 0.00 0.00 0.00 53 1014.3
20260901042105 84 151 4.0 10.0 0.00 0.00 0.00 53 1014.3
20260901042006 84 151 4.0 10.0 0.00 0.00 0.00 53 1014.3
20260901041805 84 148 4.0 8.0 0.00 0.00 0.00 53 1014.3
20260901041706 84 145 4.0 10.0 0.00 0.00 0.00 53 1014.3
20260901041605 84 144 4.0 10.0 0.00 0.00 0.00 53 1014.3
20260901041506 84 144 4.0 10.0 0.00 0.00 0.00 52 1014.3
20260901041306 84 141 4.0 10.0 0.00 0.00 0.00 52 1014.2
20260901041206 84 141 4.0 10.0 0.00 0.00 0.00 52 1014.3
20260901041106 84 140 4.0 10.0 0.00 0.00 0.00 52 1014.3
20260901041006 84 139 4.0 10.0 0.00 0.00 0.00 52 1014.3
20260901040906 84 141 3.0 10.0 0.00 0.00 0.00 53 1014.3
20260901040806 84 140 3.0 10.0 0.00 0.00 0.00 52 1014.3
20260901040606 84 140 3.0 7.0 0.00 0.00 0.00 52 1014.2
20260901040506 84 139 3.0 7.0 0.00 0.00 0.00 52 1014.3
20260901040306 84 138 2.0 7.0 0.00 0.00 0.00 51 1014.3
20260901040206 84 136 2.0 5.0 0.00 0.00 0.00 51 1014.2
20260901040106 84 135 2.0 5.0 0.00 0.00 0.00 51 1014.3
20260901040006 84 136 2.0 5.0 0.00 0.00 0.00 51 1014.3
20260901035906 84 133 2.0 6.0 0.00 0.00 0.00 51 1014.3
20260901035805 84 132 3.0 6.0 0.00 0.00 0.00 51 1014.3
20260901035706 84 131 3.0 6.0 0.00 0.00 0.00 51 1014.3
20260901035605 84 131 3.0 6.0 0.00 0.00 0.00 51 1014.3
20260901035506 84 131 3.0 6.0 0.00 0.00 0.00 50 1014.2
20260901035405 84 130 3.0 6.0 0.00 0.00 0.00 50 1014.3
20260901035306 84 129 3.0 6.0 0.00 0.00 0.00 50 1014.3
20260901035205 84 128 3.0 6.0 0.00 0.00 0.00 50 1014.3
20260901035106 84 128 3.0 6.0 0.00 0.00 0.00 50 1014.2
20260901034906 84 125 2.0 5.0 0.00 0.00 0.00 50 1014.2
20260901034805 84 124 2.0 5.0 0.00 0.00 0.00 51 1014.2
20260901034706 84 123 2.0 4.0 0.00 0.00 0.00 51 1014.2
20260901034606 84 121 1.0 4.0 0.00 0.00 0.00 51 1014.3
20260901034406 84 119 1.0 4.0 0.00 0.00 0.00 51 1014.3
20260901034306 84 119 1.0 4.0 0.00 0.00 0.00 51 1014.3
20260901034205 84 118 0.0 3.0 0.00 0.00 0.00 51 1014.2
20260901034005 84 116 0.0 3.0 0.00 0.00 0.00 51 1014.2
20260901033906 84 0 0.0 0.0 0.00 0.00 0.00 51 1014.2
20260901033805 84 0 0.0 0.0 0.00 0.00 0.00 51 1014.2
20260901033505 84 0 0.0 0.0 0.00 0.00 0.00 51 1014.2
20260901033406 84 0 0.0 0.0 0.00 0.00 0.00 51 1014.2
20260901033206 84 0 0.0 0.0 0.00 0.00 0.00 50 1014.2
20260901033106 84 0 0.0 0.0 0.00 0.00 0.00 50 1014.2
20260901033006 84 0 0.0 0.0 0.00 0.00 0.00 50 1014.1
20260901032806 84 0 0.0 0.0 0.00 0.00 0.00 50 1014.1
20260901032706 84 0 0.0 0.0 0.00 0.00 0.00 50 1014.1
20260901032605 84 0 0.0 0.0 0.00 0.00 0.00 50 1014.1
20260901032507 84 0 0.0 0.0 0.00 0.00 0.00 50 1014.1
20260901032406 84 0 0.0 0.0 0.00 0.00 0.00 50 1014.1
20260901032205 84 0 0.0 0.0 0.00 0.00 0.00 50 1014.1
20260901032106 84 0 0.0 0.0 0.00 0.00 0.00 50 1014.1
20260901032006 84 0 0.0 0.0 0.00 0.00 0.00 50 1014.0
20260901031906 85 0 0.0 0.0 0.00 0.00 0.00 50 1014.1
20260901031806 85 0 0.0 0.0 0.00 0.00 0.00 50 1014.0
20260901031706 85 0 0.0 0.0 0.00 0.00 0.00 50 1014.1
20260901031605 85 0 0.0 0.0 0.00 0.00 0.00 50 1014.0
20260901031405 85 0 0.0 0.0 0.00 0.00 0.00 50 1014.0
20260901031306 85 0 0.0 0.0 0.00 0.00 0.00 49 1014.0
20260901031206 85 0 0.0 0.0 0.00 0.00 0.00 49 1014.0
20260901031106 85 0 0.0 0.0 0.00 0.00 0.00 49 1014.0
20260901031006 85 0 0.0 0.0 0.00 0.00 0.00 49 1014.0
20260901030906 85 0 0.0 0.0 0.00 0.00 0.00 49 1014.0
20260901030805 85 0 0.0 0.0 0.00 0.00 0.00 49 1013.9
20260901030606 85 0 0.0 0.0 0.00 0.00 0.00 49 1014.0
20260901030508 85 0 0.0 0.0 0.00 0.00 0.00 49 1013.9
20260901030406 85 0 0.0 0.0 0.00 0.00 0.00 49 1013.9
20260901030306 85 0 0.0 0.0 0.00 0.00 0.00 49 1013.9
20260901030206 85 0 0.0 0.0 0.00 0.00 0.00 49 1013.9
20260901030106 85 0 0.0 0.0 0.00 0.00 0.00 49 1013.8
20260901030006 85 0 0.0 0.0 0.00 0.00 0.00 49 1013.8
20260901025905 85 0 0.0 0.0 0.00 0.00 0.00 49 1013.8
20260901025806 85 0 0.0 0.0 0.00 0.00 0.00 49 1013.7
20260901025706 85 0 0.0 0.0 0.00 0.00 0.00 49 1013.7
20260901025606 86 0 0.0 0.0 0.00 0.00 0.00 49 1013.8
20260901025506 85 0 0.0 0.0 0.00 0.00 0.00 49 1013.7
20260901025306 86 0 0.0 0.0 0.00 0.00 0.00 49 1013.7
20260901025105 86 0 0.0 0.0 0.00 0.00 0.00 49 1013.6
20260901025006 86 0 0.0 0.0 0.00 0.00 0.00 48 1013.6
20260901024706 86 122 0.0 3.0 0.00 0.00 0.00 48 1013.6
20260901024605 86 122 0.0 3.0 0.00 0.00 0.00 48 1013.6
20260901024506 86 122 0.0 3.0 0.00 0.00 0.00 48 1013.5
20260901024305 86 122 0.0 3.0 0.00 0.00 0.00 48 1013.5
20260901024206 86 128 0.0 3.0 0.00 0.00 0.00 48 1013.5
20260901024106 86 130 1.0 3.0 0.00 0.00 0.00 48 1013.6
20260901024006 86 132 1.0 3.0 0.00 0.00 0.00 48 1013.5
20260901023906 86 134 1.0 2.0 0.00 0.00 0.00 48 1013.5
20260901023706 86 134 1.0 2.0 0.00 0.00 0.00 47 1013.4
20260901023606 86 134 1.0 2.0 0.00 0.00 0.00 47 1013.4
20260901023506 86 133 1.0 2.0 0.00 0.00 0.00 47 1013.4
20260901023405 87 132 1.0 2.0 0.00 0.00 0.00 47 1013.5
20260901023305 87 130 1.0 3.0 0.00 0.00 0.00 47 1013.4
20260901023206 87 128 1.0 3.0 0.00 0.00 0.00 47 1013.4
20260901023106 87 127 1.0 3.0 0.00 0.00 0.00 47 1013.4
20260901023006 87 125 1.0 3.0 0.00 0.00 0.00 47 1013.4
20260901022906 87 122 1.0 3.0 0.00 0.00 0.00 47 1013.5
20260901022707 87 120 1.0 3.0 0.00 0.00 0.00 46 1013.4
20260901022605 87 120 1.0 3.0 0.00 0.00 0.00 46 1013.4
20260901022506 87 120 1.0 3.0 0.00 0.00 0.00 46 1013.4
20260901022405 87 119 1.0 3.0 0.00 0.00 0.00 46 1013.4
20260901022306 87 118 1.0 3.0 0.00 0.00 0.00 46 1013.4
20260901022205 87 117 1.0 3.0 0.00 0.00 0.00 46 1013.4
20260901022106 87 116 1.0 3.0 0.00 0.00 0.00 46 1013.4
20260901022006 87 115 1.0 3.0 0.00 0.00 0.00 46 1013.3
20260901021907 87 115 1.0 3.0 0.00 0.00 0.00 46 1013.3
20260901021805 87 115 1.0 3.0 0.00 0.00 0.00 46 1013.3
20260901021706 87 116 1.0 3.0 0.00 0.00 0.00 46 1013.3
20260901021606 87 116 1.0 3.0 0.00 0.00 0.00 46 1013.3
20260901021505 87 116 1.0 3.0 0.00 0.00 0.00 46 1013.3
20260901021306 87 114 1.0 3.0 0.00 0.00 0.00 46 1013.3
20260901021205 87 114 1.0 3.0 0.00 0.00 0.00 46 1013.3
20260901021107 87 114 1.0 3.0 0.00 0.00 0.00 46 1013.2
20260901021005 87 114 1.0 3.0 0.00 0.00 0.00 46 1013.3
20260901020906 87 114 1.0 3.0 0.00 0.00 0.00 46 1013.3
20260901020806 87 114 1.0 3.0 0.00 0.00 0.00 46 1013.3
20260901020705 87 115 1.0 3.0 0.00 0.00 0.00 45 1013.2
20260901020606 88 114 1.0 3.0 0.00 0.00 0.00 45 1013.2
20260901020406 88 112 2.0 3.0 0.00 0.00 0.00 45 1013.2
20260901020305 88 112 2.0 4.0 0.00 0.00 0.00 45 1013.2
20260901020106 88 112 2.0 4.0 0.00 0.00 0.00 45 1013.2
20260901020005 88 111 2.0 4.0 0.00 0.00 0.00 45 1013.1
20260901015906 88 111 2.0 4.0 0.00 0.00 0.00 45 1013.1
20260901015805 88 111 2.0 4.0 0.00 0.00 0.00 45 1013.1
20260901015605 88 110 2.0 4.0 0.00 0.00 0.00 45 1013.0
20260901015506 88 110 2.0 4.0 0.00 0.00 0.00 45 1013.0
20260901015306 88 112 2.0 3.0 0.00 0.00 0.00 45 1013.0
20260901015206 88 113 2.0 3.0 0.00 0.00 0.00 45 1013.0
20260901015106 88 113 2.0 3.0 0.00 0.00 0.00 44 1013.0
20260901015006 88 115 2.0 3.0 0.00 0.00 0.00 44 1013.0
20260901014905 88 117 2.0 3.0 0.00 0.00 0.00 44 1013.0
20260901014806 88 119 2.0 3.0 0.00 0.00 0.00 44 1012.9
20260901014705 88 122 2.0 3.0 0.00 0.00 0.00 44 1013.0
20260901014405 89 126 1.0 3.0 0.00 0.00 0.00 44 1013.0
20260901014306 89 126 1.0 3.0 0.00 0.00 0.00 43 1012.9
20260901014206 89 128 1.0 3.0 0.00 0.00 0.00 43 1012.9
20260901014105 89 128 1.0 4.0 0.00 0.00 0.00 43 1013.0
20260901014006 89 126 1.0 4.0 0.00 0.00 0.00 43 1013.0
20260901013905 89 125 1.0 4.0 0.00 0.00 0.00 43 1013.0
20260901013806 89 123 2.0 4.0 0.00 0.00 0.00 43 1013.0
20260901013706 89 121 2.0 4.0 0.00 0.00 0.00 43 1012.9
20260901013605 89 120 2.0 4.0 0.00 0.00 0.00 43 1012.9
20260901013506 89 118 2.0 4.0 0.00 0.00 0.00 43 1013.0
20260901013306 89 118 2.0 5.0 0.00 0.00 0.00 43 1012.9
20260901013205 89 117 2.0 6.0 0.00 0.00 0.00 43 1012.9
20260901013106 89 116 2.0 6.0 0.00 0.00 0.00 42 1012.8
20260901013005 90 116 3.0 6.0 0.00 0.00 0.00 42 1012.8
20260901012906 90 117 3.0 6.0 0.00 0.00 0.00 42 1012.8
20260901012806 90 117 3.0 6.0 0.00 0.00 0.00 42 1012.8
20260901012706 90 116 3.0 6.0 0.00 0.00 0.00 42 1012.7
20260901012605 90 116 3.0 6.0 0.00 0.00 0.00 42 1012.7
20260901012405 90 117 3.0 6.0 0.00 0.00 0.00 42 1012.7
20260901012306 90 117 3.0 6.0 0.00 0.00 0.00 42 1012.7
20260901012205 90 116 3.0 6.0 0.00 0.00 0.00 42 1012.7
20260901012106 90 117 3.0 6.0 0.00 0.00 0.00 42 1012.7
20260901012006 90 116 3.0 6.0 0.00 0.00 0.00 43 1012.8
20260901011906 90 116 3.0 6.0 0.00 0.00 0.00 42 1012.7
20260901011806 90 116 3.0 6.0 0.00 0.00 0.00 42 1012.7
20260901011706 90 116 3.0 5.0 0.00 0.00 0.00 42 1012.7
20260901011506 90 115 4.0 5.0 0.00 0.00 0.00 42 1012.6
20260901011405 90 114 4.0 5.0 0.00 0.00 0.00 42 1012.6
20260901011306 90 114 4.0 8.0 0.00 0.00 0.00 42 1012.6
20260901011206 90 114 4.0 8.0 0.00 0.00 0.00 42 1012.7
20260901011107 90 112 4.0 8.0 0.00 0.00 0.00 42 1012.7
20260901011006 91 112 4.0 8.0 0.00 0.00 0.00 42 1012.7
20260901010805 91 110 4.0 8.0 0.00 0.00 0.00 42 1012.6
20260901010706 91 110 4.0 8.0 0.00 0.00 0.00 42 1012.6
20260901010605 91 110 4.0 8.0 0.00 0.00 0.00 42 1012.7
20260901010506 91 111 4.0 8.0 0.00 0.00 0.00 42 1012.7
20260901010405 91 112 4.0 8.0 0.00 0.00 0.00 42 1012.7
20260901010306 91 110 4.0 6.0 0.00 0.00 0.00 42 1012.6
20260901010205 91 110 4.0 6.0 0.00 0.00 0.00 41 1012.6
20260901010106 91 112 4.0 8.0 0.00 0.00 0.00 41 1012.5
20260901010006 91 113 4.0 8.0 0.00 0.00 0.00 41 1012.6
20260901005906 91 115 4.0 8.0 0.00 0.00 0.00 41 1012.6
20260901005805 91 114 4.0 8.0 0.00 0.00 0.00 41 1012.6
20260901005706 92 114 4.0 8.0 0.00 0.00 0.00 41 1012.6
20260901005606 92 113 4.0 8.0 0.00 0.00 0.00 41 1012.6
20260901005205 92 112 4.0 8.0 0.00 0.00 0.00 40 1012.6
20260901005106 92 112 4.0 8.0 0.00 0.00 0.00 40 1012.7
20260901005006 92 113 4.0 8.0 0.00 0.00 0.00 40 1012.7
20260901004706 92 116 4.0 8.0 0.00 0.00 0.00 40 1012.7
20260901004606 93 116 4.0 8.0 0.00 0.00 0.00 39 1012.6
20260901004506 93 117 4.0 8.0 0.00 0.00 0.00 39 1012.6
20260901004405 93 118 4.0 8.0 0.00 0.00 0.00 39 1012.6
20260901004306 93 119 4.0 8.0 0.00 0.00 0.00 39 1012.6
20260901004205 93 120 5.0 8.0 0.00 0.00 0.00 39 1012.7
20260901004006 93 118 5.0 11.0 0.00 0.00 0.00 39 1012.7
20260901003806 93 118 5.0 12.0 0.00 0.00 0.00 38 1012.7
20260901003705 93 117 5.0 12.0 0.00 0.00 0.00 38 1012.6
20260901003605 93 119 6.0 12.0 0.00 0.00 0.00 38 1012.7
20260901003506 94 120 6.0 12.0 0.00 0.00 0.00 38 1012.7
20260901003405 94 120 6.0 12.0 0.00 0.00 0.00 38 1012.6
20260901003306 94 119 6.0 12.0 0.00 0.00 0.00 38 1012.7
20260901003205 94 119 6.0 12.0 0.00 0.00 0.00 38 1012.6
20260901003005 94 118 6.0 12.0 0.00 0.00 0.00 38 1012.7
20260901002906 94 117 5.0 12.0 0.00 0.00 0.00 38 1012.6
20260901002805 94 116 6.0 10.0 0.00 0.00 0.00 38 1012.7
20260901002605 94 117 6.0 12.0 0.00 0.00 0.00 38 1012.6
20260901002306 94 117 7.0 12.0 0.00 0.00 0.00 37 1012.6
20260901002206 94 117 7.0 12.0 0.00 0.00 0.00 38 1012.6
20260901002106 94 117 7.0 12.0 0.00 0.00 0.00 37 1012.6
20260901002006 94 116 7.0 12.0 0.00 0.00 0.00 37 1012.6
20260901001806 94 115 7.0 12.0 0.00 0.00 0.00 37 1012.6
20260901001706 95 114 7.0 12.0 0.00 0.00 0.00 37 1012.6
20260901001605 95 114 7.0 12.0 0.00 0.00 0.00 37 1012.6
20260901001506 95 115 7.0 12.0 0.00 0.00 0.00 37 1012.5
20260901001405 95 114 7.0 12.0 0.00 0.00 0.00 37 1012.5
20260901001306 95 113 7.0 12.0 0.00 0.00 0.00 37 1012.5
20260901001206 95 113 7.0 12.0 0.00 0.00 0.00 37 1012.5
20260901001105 95 113 7.0 12.0 0.00 0.00 0.00 37 1012.5
20260901000907 95 115 7.0 12.0 0.00 0.00 0.00 36 1012.4
20260901000805 95 113 7.0 12.0 0.00 0.00 0.00 36 1012.4
20260901000705 95 112 7.0 12.0 0.00 0.00 0.00 36 1012.4
20260901000505 95 111 6.0 12.0 0.00 0.00 0.00 36 1012.5
20260901000406 95 108 6.0 12.0 0.00 0.00 0.00 36 1012.5
20260901000305 95 107 6.0 11.0 0.00 0.00 0.00 36 1012.5
20260901000206 96 105 6.0 11.0 0.00 0.00 0.00 36 1012.5
20260901000106 96 103 6.0 11.0 0.00 0.00 0.00 36 1012.5
20260901000005 96 102 6.0 11.0 0.00 0.00 0.00 36 1012.5
20260831235905 96 100 6.0 11.0 0.00 0.00 0.00 36 1012.5
20260831235805 96 101 6.0 12.0 0.00 0.00 0.00 36 1012.5
20260831235705 96 103 6.0 12.0 0.00 0.00 0.00 35 1012.4
20260831235605 96 104 6.0 12.0 0.00 0.00 0.00 35 1012.4
20260831235505 96 104 6.0 12.0 0.00 0.00 0.00 35 1012.4
20260831235405 96 106 6.0 12.0 0.00 0.00 0.00 35 1012.4
20260831235306 96 109 7.0 12.0 0.00 0.00 0.00 35 1012.4
20260831235005 96 114 6.0 12.0 0.00 0.00 0.00 35 1012.4
20260831234906 96 114 6.0 12.0 0.00 0.00 0.00 34 1012.4
20260831234706 96 112 6.0 11.0 0.00 0.00 0.00 34 1012.4
20260831234605 96 112 6.0 11.0 0.00 0.00 0.00 34 1012.4
20260831234506 96 111 7.0 11.0 0.00 0.00 0.00 34 1012.5
20260831234405 96 111 7.0 12.0 0.00 0.00 0.00 34 1012.5
20260831234306 96 110 6.0 12.0 0.00 0.00 0.00 34 1012.5
20260831234205 96 108 6.0 12.0 0.00 0.00 0.00 34 1012.5
20260831234105 96 108 7.0 12.0 0.00 0.00 0.00 34 1012.5
20260831234006 96 108 6.0 12.0 0.00 0.00 0.00 34 1012.5
20260831233906 96 107 6.0 12.0 0.00 0.00 0.00 34 1012.5
20260831233806 96 107 6.0 12.0 0.00 0.00 0.00 34 1012.5
20260831233705 96 106 7.0 12.0 0.00 0.00 0.00 34 1012.5
20260831233606 96 105 7.0 12.0 0.00 0.00 0.00 34 1012.5
20260831233505 97 103 6.0 12.0 0.00 0.00 0.00 34 1012.6
20260831233405 97 101 6.0 12.0 0.00 0.00 0.00 34 1012.5
20260831233305 97 99 7.0 12.0 0.00 0.00 0.00 35 1012.5
20260831233205 97 98 7.0 12.0 0.00 0.00 0.00 35 1012.5
20260831233106 97 99 7.0 12.0 0.00 0.00 0.00 35 1012.5
20260831233006 97 99 7.0 12.0 0.00 0.00 0.00 35 1012.6
20260831232905 97 102 7.0 13.0 0.00 0.00 0.00 34 1012.5
20260831232806 97 104 7.0 13.0 0.00 0.00 0.00 34 1012.5
20260831232705 97 105 7.0 13.0 0.00 0.00 0.00 34 1012.5
20260831232606 97 107 7.0 13.0 0.00 0.00 0.00 34 1012.5
20260831232406 97 105 8.0 13.0 0.00 0.00 0.00 34 1012.6
20260831232206 97 105 8.0 14.0 0.00 0.00 0.00 34 1012.6
20260831232105 97 105 8.0 14.0 0.00 0.00 0.00 34 1012.5
20260831232005 97 105 8.0 14.0 0.00 0.00 0.00 33 1012.6
20260831231906 97 103 8.0 14.0 0.00 0.00 0.00 33 1012.5
20260831231805 97 101 8.0 14.0 0.00 0.00 0.00 33 1012.6
20260831231705 97 103 7.0 14.0 0.00 0.00 0.00 33 1012.6
20260831231605 97 103 7.0 14.0 0.00 0.00 0.00 33 1012.5
20260831231505 98 104 6.0 14.0 0.00 0.00 0.00 33 1012.5
20260831231406 98 105 6.0 14.0 0.00 0.00 0.00 33 1012.5
20260831231306 97 106 6.0 14.0 0.00 0.00 0.00 33 1012.5
20260831231105 97 102 6.0 13.0 0.00 0.00 0.00 33 1012.5
20260831230906 97 101 5.0 11.0 0.00 0.00 0.00 34 1012.6
20260831230807 97 101 5.0 11.0 0.00 0.00 0.00 34 1012.6
20260831230705 96 97 6.0 13.0 0.00 0.00 0.00 36 1012.6
20260831230605 96 97 6.0 13.0 0.00 0.00 0.00 36 1012.7
20260831230505 96 99 6.0 13.0 0.00 0.00 0.00 37 1012.6
20260831230405 96 101 7.0 13.0 0.00 0.00 0.00 36 1012.6
20260831230306 96 100 7.0 13.0 0.00 0.00 0.00 36 1012.6
20260831230105 96 99 7.0 13.0 0.00 0.00 0.00 36 1012.7
20260831230007 96 97 8.0 13.0 0.00 0.00 0.00 35 1012.6
20260831225905 97 96 8.0 13.0 0.00 0.00 0.00 35 1012.6
20260831225807 97 93 8.0 13.0 0.00 0.00 0.00 34 1012.6
20260831225705 98 90 8.0 13.0 0.00 0.00 0.00 35 1012.6
20260831225506 98 86 8.0 13.0 0.00 0.00 0.00 35 1012.6
20260831225405 98 83 9.0 13.0 0.00 0.00 0.00 34 1012.6
20260831225306 98 82 9.0 14.0 0.00 0.00 0.00 34 1012.6
20260831225206 98 84 9.0 14.0 0.00 0.00 0.00 34 1012.6
20260831225006 98 87 9.0 17.0 0.00 0.00 0.00 34 1012.6
20260831224805 98 88 10.0 17.0 0.00 0.00 0.00 34 1012.7
20260831224706 98 89 10.0 17.0 0.00 0.00 0.00 34 1012.7
20260831224605 98 90 10.0 17.0 0.00 0.00 0.00 33 1012.7
20260831224405 98 90 10.0 17.0 0.00 0.00 0.00 34 1012.7
20260831224305 98 90 10.0 17.0 0.00 0.00 0.00 33 1012.6
20260831224105 99 90 9.0 15.0 0.00 0.00 0.00 34 1012.7
20260831224006 99 89 9.0 15.0 0.00 0.00 0.00 33 1012.7
20260831223905 98 89 9.0 15.0 0.00 0.00 0.00 33 1012.7
20260831223806 98 88 9.0 15.0 0.00 0.00 0.00 33 1012.7
20260831223705 99 88 9.0 15.0 0.00 0.00 0.00 33 1012.7
20260831223505 99 86 9.0 15.0 0.00 0.00 0.00 34 1012.7
20260831223406 98 87 9.0 15.0 0.00 0.00 0.00 34 1012.7
20260831223306 98 88 9.0 15.0 0.00 0.00 0.00 34 1012.7
20260831223205 98 88 9.0 15.0 0.00 0.00 0.00 34 1012.7
20260831223106 98 86 9.0 15.0 0.00 0.00 0.00 34 1012.7
20260831223006 98 86 9.0 15.0 0.00 0.00 0.00 34 1012.7
20260831222905 98 85 10.0 15.0 0.00 0.00 0.00 34 1012.8
20260831222805 98 86 9.0 16.0 0.00 0.00 0.00 34 1012.7
20260831222706 99 86 9.0 16.0 0.00 0.00 0.00 34 1012.8
20260831222405 99 87 9.0 16.0 0.00 0.00 0.00 34 1012.8
20260831222306 99 87 9.0 16.0 0.00 0.00 0.00 34 1012.8
20260831222205 99 89 9.0 16.0 0.00 0.00 0.00 34 1012.8
20260831222105 99 91 8.0 16.0 0.00 0.00 0.00 34 1012.8
20260831222005 99 92 8.0 16.0 0.00 0.00 0.00 34 1012.8
20260831221906 99 93 7.0 16.0 0.00 0.00 0.00 34 1012.8
20260831221805 100 96 7.0 13.0 0.00 0.00 0.00 34 1012.8
20260831221705 100 99 7.0 13.0 0.00 0.00 0.00 34 1012.8
20260831221606 100 102 7.0 13.0 0.00 0.00 0.00 34 1012.9
20260831221505 100 103 7.0 13.0 0.00 0.00 0.00 34 1012.9
20260831221406 100 106 7.0 14.0 0.00 0.00 0.00 34 1012.9
20260831221305 100 107 7.0 14.0 0.00 0.00 0.00 35 1012.8
20260831221207 100 109 7.0 14.0 0.00 0.00 0.00 34 1012.9
20260831221106 100 109 8.0 14.0 0.00 0.00 0.00 33 1012.9
20260831221005 100 109 8.0 15.0 0.00 0.00 0.00 33 1012.9
20260831220906 99 109 9.0 15.0 0.00 0.00 0.00 31 1012.9
20260831220805 99 106 9.0 15.0 0.00 0.00 0.00 31 1012.9
20260831220706 99 105 9.0 15.0 0.00 0.00 0.00 34 1012.9
20260831220506 99 100 9.0 15.0 0.00 0.00 0.00 33 1012.9
20260831220405 100 98 8.0 15.0 0.00 0.00 0.00 33 1012.9
20260831220305 100 97 8.0 15.0 0.00 0.00 0.00 33 1012.9
20260831220207 100 92 8.0 15.0 0.00 0.00 0.00 33 1012.8
20260831220105 100 92 8.0 15.0 0.00 0.00 0.00 32 1012.9
20260831220006 100 93 8.0 15.0 0.00 0.00 0.00 32 1012.9
20260831215905 100 92 7.0 14.0 0.00 0.00 0.00 33 1012.9
20260831215706 100 98 7.0 14.0 0.00 0.00 0.00 32 1012.9
20260831215506 100 103 7.0 11.0 0.00 0.00 0.00 32 1012.9
20260831215206 100 118 7.0 11.0 0.00 0.00 0.00 32 1012.9
20260831215105 100 114 7.0 15.0 0.00 0.00 0.00 32 1013.0
20260831215006 100 114 7.0 16.0 0.00 0.00 0.00 33 1013.0
20260831214806 100 117 7.0 16.0 0.00 0.00 0.00 34 1013.0
20260831214705 100 117 7.0 16.0 0.00 0.00 0.00 33 1013.0
20260831214606 100 117 8.0 16.0 0.00 0.00 0.00 33 1013.0
20260831214505 100 123 8.0 16.0 0.00 0.00 0.00 33 1013.1
20260831214305 100 121 8.0 16.0 0.00 0.00 0.00 33 1013.1
20260831214105 100 129 7.0 16.0 0.00 0.00 0.00 33 1013.1
20260831214006 100 131 7.0 16.0 0.00 0.00 0.00 31 1013.1
20260831213905 100 131 7.0 16.0 0.00 0.00 0.00 31 1013.1
20260831213805 100 132 7.0 16.0 0.00 0.00 0.00 31 1013.2
20260831213705 100 132 6.0 13.0 0.00 0.00 0.00 32 1013.1
20260831213505 100 126 6.0 13.0 0.00 0.00 0.00 32 1013.1
20260831213305 100 126 5.0 13.0 0.00 0.00 0.00 33 1013.1
20260831213206 100 119 6.0 12.0 0.00 0.00 0.00 33 1013.2
20260831212905 99 132 6.0 13.0 0.00 0.00 0.00 33 1013.2
20260831212806 99 135 6.0 13.0 0.00 0.00 0.00 32 1013.2
20260831212705 99 137 6.0 13.0 0.00 0.00 0.00 32 1013.2
20260831212605 100 135 6.0 13.0 0.00 0.00 0.00 32 1013.2
20260831212505 100 135 6.0 13.0 0.00 0.00 0.00 32 1013.3
20260831212406 100 134 7.0 13.0 0.00 0.00 0.00 32 1013.3
20260831212306 100 130 6.0 13.0 0.00 0.00 0.00 32 1013.4
20260831212206 100 130 6.0 13.0 0.00 0.00 0.00 32 1013.3
20260831212105 100 130 6.0 13.0 0.00 0.00 0.00 32 1013.3
20260831212005 100 129 6.0 12.0 0.00 0.00 0.00 32 1013.3
20260831211905 100 125 5.0 11.0 0.00 0.00 0.00 32 1013.3
20260831211806 100 123 5.0 11.0 0.00 0.00 0.00 31 1013.3
20260831211705 99 122 5.0 11.0 0.00 0.00 0.00 31 1013.3
20260831211606 99 125 5.0 11.0 0.00 0.00 0.00 31 1013.3
20260831211405 99 132 6.0 11.0 0.00 0.00 0.00 32 1013.4
20260831211305 99 137 6.0 12.0 0.00 0.00 0.00 30 1013.3
20260831211206 99 138 6.0 13.0 0.00 0.00 0.00 31 1013.4
20260831211105 99 136 7.0 13.0 0.00 0.00 0.00 33 1013.5
20260831211006 99 135 7.0 13.0 0.00 0.00 0.00 33 1013.5
20260831210905 99 133 8.0 16.0 0.00 0.00 0.00 33 1013.6
20260831210705 99 134 8.0 16.0 0.00 0.00 0.00 33 1013.6
20260831210605 99 138 7.0 16.0 0.00 0.00 0.00 33 1013.6
20260831210506 99 138 8.0 16.0 0.00 0.00 0.00 33 1013.6
20260831210406 99 137 7.0 16.0 0.00 0.00 0.00 33 1013.6
20260831210305 99 135 8.0 16.0 0.00 0.00 0.00 33 1013.6
20260831210205 99 134 8.0 16.0 0.00 0.00 0.00 33 1013.6
20260831210005 100 131 8.0 16.0 0.00 0.00 0.00 33 1013.6
20260831205905 100 132 8.0 16.0 0.00 0.00 0.00 33 1013.6
20260831205805 100 131 8.0 16.0 0.00 0.00 0.00 33 1013.7
20260831205706 100 130 8.0 16.0 0.00 0.00 0.00 33 1013.7
20260831205605 100 129 9.0 16.0 0.00 0.00 0.00 33 1013.7
20260831205505 99 129 9.0 16.0 0.00 0.00 0.00 31 1013.7
20260831205405 99 130 8.0 16.0 0.00 0.00 0.00 32 1013.7
20260831205205 99 134 8.0 15.0 0.00 0.00 0.00 34 1013.8
20260831205105 99 137 7.0 15.0 0.00 0.00 0.00 33 1013.8
20260831205006 99 138 7.0 15.0 0.00 0.00 0.00 33 1013.9
20260831204905 99 141 7.0 15.0 0.00 0.00 0.00 33 1013.9
20260831204806 99 142 7.0 15.0 0.00 0.00 0.00 34 1013.9
20260831204705 99 142 6.0 15.0 0.00 0.00 0.00 34 1013.9
20260831204606 99 144 6.0 15.0 0.00 0.00 0.00 34 1013.9
20260831204505 99 148 7.0 14.0 0.00 0.00 0.00 34 1014.0
20260831204407 99 148 7.0 14.0 0.00 0.00 0.00 34 1014.0
20260831204305 99 147 7.0 14.0 0.00 0.00 0.00 34 1014.0
20260831204105 98 137 8.0 16.0 0.00 0.00 0.00 34 1014.1
20260831203905 98 130 8.0 16.0 0.00 0.00 0.00 33 1014.2
20260831203805 99 124 8.0 16.0 0.00 0.00 0.00 33 1014.2
20260831203705 99 123 8.0 16.0 0.00 0.00 0.00 34 1014.2
20260831203605 100 121 7.0 16.0 0.00 0.00 0.00 34 1014.2
20260831203505 100 114 7.0 16.0 0.00 0.00 0.00 34 1014.2
20260831203405 99 111 7.0 16.0 0.00 0.00 0.00 34 1014.3
20260831203105 99 105 7.0 16.0 0.00 0.00 0.00 35 1014.2
20260831203005 98 104 7.0 14.0 0.00 0.00 0.00 35 1014.3
20260831202805 98 105 7.0 14.0 0.00 0.00 0.00 36 1014.3
20260831202705 97 105 7.0 14.0 0.00 0.00 0.00 36 1014.2
20260831202405 95 108 7.0 14.0 0.00 0.00 0.00 38 1014.3
20260831202306 95 112 7.0 14.0 0.00 0.00 0.00 38 1014.3
20260831202205 95 117 7.0 14.0 0.00 0.00 0.00 38 1014.3
20260831202105 95 120 7.0 14.0 0.00 0.00 0.00 38 1014.3
20260831202006 95 123 6.0 14.0 0.00 0.00 0.00 38 1014.4
20260831201905 96 125 7.0 13.0 0.00 0.00 0.00 38 1014.3
20260831201806 96 126 7.0 13.0 0.00 0.00 0.00 38 1014.3
20260831201705 96 123 7.0 15.0 0.00 0.00 0.00 38 1014.3
20260831201606 96 123 6.0 15.0 0.00 0.00 0.00 38 1014.4
20260831201505 96 125 6.0 15.0 0.00 0.00 0.00 38 1014.4
20260831201405 97 125 7.0 15.0 0.00 0.00 0.00 38 1014.4
20260831201305 97 123 7.0 15.0 0.00 0.00 0.00 37 1014.4
20260831201205 97 125 7.0 15.0 0.00 0.00 0.00 37 1014.4
20260831201005 97 129 7.0 15.0 0.00 0.00 0.00 37 1014.4
20260831200705 99 145 7.0 13.0 0.00 0.00 0.00 35 1014.5
20260831200606 99 146 7.0 13.0 0.00 0.00 0.00 35 1014.5
20260831200406 100 149 8.0 17.0 0.00 0.00 0.00 35 1014.5
20260831200305 100 147 8.0 17.0 0.00 0.00 0.00 36 1014.5
20260831200105 99 138 9.0 18.0 0.00 0.00 0.00 35 1014.5
20260831200006 99 134 10.0 18.0 0.00 0.00 0.00 35 1014.5
20260831195905 99 132 9.0 18.0 0.00 0.00 0.00 35 1014.5
20260831195806 100 128 9.0 18.0 0.00 0.00 0.00 35 1014.6
20260831195605 100 130 8.0 18.0 0.00 0.00 0.00 35 1014.6
20260831195405 99 130 7.0 18.0 0.00 0.00 0.00 35 1014.5
20260831195205 99 135 6.0 18.0 0.00 0.00 0.00 35 1014.5
20260831195105 99 144 7.0 16.0 0.00 0.00 0.00 36 1014.5
20260831195005 99 153 6.0 16.0 0.00 0.00 0.00 36 1014.6
20260831194905 99 157 7.0 16.0 0.00 0.00 0.00 36 1014.6
20260831194705 99 159 7.0 16.0 0.00 0.00 0.00 35 1014.5
20260831194605 99 154 8.0 16.0 0.00 0.00 0.00 35 1014.7
20260831194505 99 151 8.0 16.0 0.00 0.00 0.00 35 1014.7
20260831194405 99 149 8.0 16.0 0.00 0.00 0.00 35 1014.7
20260831194005 98 143 8.0 16.0 0.00 0.00 0.00 36 1014.7
20260831193905 97 147 8.0 16.0 0.00 0.00 0.00 36 1014.8
20260831193805 97 149 8.0 16.0 0.00 0.00 0.00 36 1014.8
20260831193705 98 148 8.0 16.0 0.00 0.00 0.00 36 1014.8
20260831193606 98 148 8.0 16.0 0.00 0.00 0.00 35 1014.8
20260831193505 98 150 7.0 16.0 0.00 0.00 0.00 36 1014.8
20260831193406 99 149 7.0 16.0 0.00 0.00 0.00 36 1014.8
20260831193305 99 148 7.0 14.0 0.00 0.00 0.00 35 1014.8
20260831193206 99 145 6.0 14.0 0.00 0.00 0.00 34 1014.7
20260831193105 99 143 6.0 13.0 0.00 0.00 0.00 34 1014.8
20260831193005 99 139 6.0 13.0 0.00 0.00 0.00 34 1014.7
20260831192905 99 131 5.0 13.0 0.00 0.00 0.00 34 1014.8
20260831192805 99 120 5.0 12.0 0.00 0.00 0.00 36 1014.7
20260831192705 98 117 5.0 12.0 0.00 0.00 0.00 36 1014.8
20260831192605 98 118 5.0 12.0 0.00 0.00 0.00 37 1014.8
20260831192505 97 119 5.0 12.0 0.00 0.00 0.00 36 1014.8
20260831192406 97 124 5.0 12.0 0.00 0.00 0.00 37 1014.8
20260831192205 98 134 6.0 12.0 0.00 0.00 0.00 37 1014.8
20260831192105 98 140 6.0 14.0 0.00 0.00 0.00 37 1014.9
20260831191905 98 143 6.0 14.0 0.00 0.00 0.00 37 1014.8
20260831191805 98 150 7.0 14.0 0.00 0.00 0.00 37 1014.9
20260831191505 98 140 8.0 15.0 0.00 0.00 0.00 37 1014.9
20260831191406 98 135 9.0 18.0 0.00 0.00 0.00 36 1015.0
20260831191305 98 131 8.0 18.0 0.00 0.00 0.00 36 1015.1
20260831191206 98 129 8.0 18.0 0.00 0.00 0.00 36 1015.0
20260831191005 98 125 7.0 18.0 0.00 0.00 0.00 35 1015.2
20260831190905 98 121 7.0 18.0 0.00 0.00 0.00 35 1015.2
20260831190805 98 115 7.0 18.0 0.00 0.00 0.00 35 1015.0
20260831190706 98 114 6.0 18.0 0.00 0.00 0.00 36 1015.0
20260831190605 98 114 6.0 18.0 0.00 0.00 0.00 36 1015.0
20260831190406 98 112 5.0 18.0 0.00 0.00 0.00 38 1015.1
20260831190305 98 111 6.0 14.0 0.00 0.00 0.00 37 1015.1
20260831190205 98 110 6.0 14.0 0.00 0.00 0.00 37 1015.2
20260831190106 98 107 6.0 14.0 0.00 0.00 0.00 38 1015.2
20260831190006 98 103 7.0 14.0 0.00 0.00 0.00 37 1015.2
20260831185905 99 101 8.0 17.0 0.00 0.00 0.00 37 1015.2
20260831185805 99 100 8.0 17.0 0.00 0.00 0.00 37 1015.2
20260831185705 99 97 8.0 17.0 0.00 0.00 0.00 36 1015.2
20260831185505 99 96 8.0 17.0 0.00 0.00 0.00 37 1015.3
20260831185405 99 98 7.0 17.0 0.00 0.00 0.00 37 1015.2
20260831185306 99 100 7.0 17.0 0.00 0.00 0.00 36 1015.2
20260831185205 98 103 7.0 17.0 0.00 0.00 0.00 36 1015.2
20260831185104 98 107 6.0 17.0 0.00 0.00 0.00 36 1015.1
20260831185005 98 112 6.0 17.0 0.00 0.00 0.00 36 1015.2
20260831184905 98 120 6.0 15.0 0.00 0.00 0.00 36 1015.2
20260831184805 98 129 5.0 15.0 0.00 0.00 0.00 37 1015.2
20260831184605 97 143 5.0 15.0 0.00 0.00 0.00 40 1015.3
20260831184505 97 145 6.0 15.0 0.00 0.00 0.00 39 1015.3
20260831184405 97 140 6.0 15.0 0.00 0.00 0.00 40 1015.3
20260831184305 97 138 6.0 15.0 0.00 0.00 0.00 40 1015.4
20260831184205 97 137 7.0 15.0 0.00 0.00 0.00 40 1015.4
20260831184105 97 136 7.0 15.0 0.00 0.00 0.00 40 1015.5
20260831184005 97 132 8.0 15.0 0.00 0.00 0.00 38 1015.5
20260831183905 98 138 7.0 19.0 0.00 0.00 0.00 38 1015.5
20260831183805 98 140 7.0 19.0 0.00 0.00 0.00 39 1015.4
20260831183705 98 138 7.0 19.0 0.00 0.00 0.00 39 1015.5
20260831183605 98 136 8.0 19.0 0.00 0.00 0.00 38 1015.4
20260831183505 97 135 8.0 19.0 0.00 0.00 0.00 40 1015.4
20260831183406 97 138 7.0 19.0 0.00 0.00 0.00 40 1015.5
20260831183305 97 137 7.0 19.0 0.00 0.00 0.00 40 1015.5
20260831183205 97 135 7.0 19.0 0.00 0.00 0.00 41 1015.5
20260831183005 97 131 7.0 19.0 0.00 0.00 0.00 40 1015.5
20260831182805 97 121 6.0 14.0 0.00 0.00 0.00 41 1015.6
20260831182705 98 121 6.0 14.0 0.00 0.00 0.00 42 1015.6
20260831182605 97 120 6.0 14.0 0.00 0.00 0.00 42 1015.5
20260831182504 97 114 6.0 14.0 0.00 0.00 0.00 42 1015.6
20260831182405 96 111 7.0 14.0 0.00 0.00 0.00 42 1015.7
20260831182306 96 113 8.0 14.0 0.00 0.00 0.00 43 1015.7
20260831182205 96 110 8.0 15.0 0.00 0.00 0.00 43 1015.7
20260831182105 96 108 8.0 15.0 0.00 0.00 0.00 43 1015.7
20260831181905 96 102 8.0 15.0 0.00 0.00 0.00 43 1015.7
20260831181805 96 99 8.0 15.0 0.00 0.00 0.00 42 1015.7
20260831181705 96 98 8.0 15.0 0.00 0.00 0.00 43 1015.6
20260831181605 95 98 9.0 15.0 0.00 0.00 0.00 43 1015.7
20260831181305 96 97 8.0 15.0 0.00 0.00 0.00 42 1015.8
20260831181105 95 96 7.0 15.0 0.00 0.00 0.00 41 1015.7
20260831181005 95 97 7.0 15.0 0.00 0.00 0.00 42 1015.8
20260831180905 95 101 7.0 15.0 0.00 0.00 0.00 42 1015.9
20260831180805 95 104 7.0 15.0 0.00 0.00 0.00 41 1015.8
20260831180705 95 105 7.0 15.0 0.00 0.00 0.00 41 1015.8
20260831180605 96 107 7.0 15.0 0.00 0.00 0.00 41 1015.9
20260831180505 96 108 7.0 15.0 0.00 0.00 0.00 42 1016.0
20260831180405 96 111 7.0 15.0 0.00 0.00 0.00 42 1015.9
20260831180304 96 113 7.0 15.0 0.00 0.00 0.00 42 1015.9
20260831180205 96 115 7.0 15.0 0.00 0.00 0.00 43 1015.9
20260831180105 95 113 7.0 14.0 0.00 0.00 0.00 43 1016.0
20260831180005 95 108 8.0 14.0 0.00 0.00 0.00 43 1016.0
20260831175905 95 107 7.0 14.0 0.00 0.00 0.00 41 1016.0
20260831175805 96 108 7.0 14.0 0.00 0.00 0.00 41 1016.0
20260831175705 96 111 6.0 14.0 0.00 0.00 0.00 41 1016.0
20260831175605 96 112 6.0 14.0 0.00 0.00 0.00 41 1016.0
20260831175505 97 111 6.0 14.0 0.00 0.00 0.00 41 1016.1
20260831175405 96 117 5.0 13.0 0.00 0.00 0.00 42 1016.0
20260831175306 96 122 5.0 12.0 0.00 0.00 0.00 41 1016.0
20260831175204 96 131 6.0 12.0 0.00 0.00 0.00 42 1016.0
20260831175104 96 141 5.0 12.0 0.00 0.00 0.00 42 1016.1
20260831175005 96 150 5.0 12.0 0.00 0.00 0.00 42 1016.1
20260831174805 95 162 5.0 12.0 0.00 0.00 0.00 41 1016.1
20260831174705 95 158 6.0 12.0 0.00 0.00 0.00 41 1016.1
20260831174605 96 158 6.0 12.0 0.00 0.00 0.00 41 1016.1
20260831174405 96 157 6.0 12.0 0.00 0.00 0.00 43 1016.2
20260831174205 96 149 5.0 12.0 0.00 0.00 0.00 43 1016.2
20260831174105 96 147 5.0 11.0 0.00 0.00 0.00 43 1016.2
20260831174005 96 148 5.0 11.0 0.00 0.00 0.00 43 1016.2
20260831173905 96 144 5.0 11.0 0.00 0.00 0.00 43 1016.3
20260831173806 96 141 6.0 11.0 0.00 0.00 0.00 43 1016.3
20260831173705 96 143 6.0 13.0 0.00 0.00 0.00 43 1016.3
20260831173505 95 140 6.0 13.0 0.00 0.00 0.00 44 1016.3
20260831173305 95 133 7.0 13.0 0.00 0.00 0.00 43 1016.3
20260831173205 96 126 7.0 13.0 0.00 0.00 0.00 43 1016.4
20260831173104 96 125 7.0 13.0 0.00 0.00 0.00 42 1016.4
20260831173005 96 121 7.0 13.0 0.00 0.00 0.00 44 1016.4
20260831172904 96 117 7.0 13.0 0.00 0.00 0.00 44 1016.4
20260831172805 95 113 6.0 13.0 0.00 0.00 0.00 44 1016.4
20260831172705 95 109 6.0 13.0 0.00 0.00 0.00 46 1016.3
20260831172605 95 109 6.0 13.0 0.00 0.00 0.00 46 1016.4
20260831172504 95 109 6.0 13.0 0.00 0.00 0.00 46 1016.4
20260831172405 95 113 6.0 13.0 0.00 0.00 0.00 46 1016.4
20260831172306 95 123 6.0 13.0 0.00 0.00 0.00 47 1016.4
20260831172206 94 133 6.0 13.0 0.00 0.00 0.00 47 1016.4
20260831172104 94 137 5.0 13.0 0.00 0.00 0.00 47 1016.4
20260831172005 94 142 6.0 13.0 0.00 0.00 0.00 47 1016.4
20260831171904 94 148 5.0 13.0 0.00 0.00 0.00 46 1016.5
20260831171805 94 152 5.0 13.0 0.00 0.00 0.00 46 1016.5
20260831171705 94 156 5.0 13.0 0.00 0.00 0.00 47 1016.4
20260831171505 94 151 6.0 13.0 0.00 0.00 0.00 46 1016.5
20260831171405 94 150 6.0 13.0 0.00 0.00 0.00 46 1016.6
20260831171305 94 146 5.0 12.0 0.00 0.00 0.00 44 1016.6
20260831171005 94 150 6.0 12.0 0.00 0.00 0.00 44 1016.6
20260831170904 94 146 6.0 12.0 0.00 0.00 0.00 44 1016.6
20260831170705 94 138 6.0 13.0 0.00 0.00 0.00 45 1016.6
20260831170605 94 137 6.0 13.0 0.00 0.00 0.00 44 1016.6
20260831170505 94 137 6.0 13.0 0.00 0.00 0.00 45 1016.6
20260831170305 94 130 6.0 13.0 0.00 0.00 0.00 45 1016.6
20260831170205 94 126 6.0 13.0 0.00 0.00 0.00 45 1016.6
20260831170105 94 120 5.0 13.0 0.00 0.00 0.00 47 1016.6
20260831170005 94 120 5.0 13.0 0.00 0.00 0.00 48 1016.6
20260831165805 94 134 5.0 13.0 0.00 0.00 0.00 48 1016.6
20260831165705 94 147 5.0 10.0 0.00 0.00 0.00 48 1016.6
20260831165605 94 156 5.0 10.0 0.00 0.00 0.00 49 1016.6
20260831165505 94 160 5.0 10.0 0.00 0.00 0.00 48 1016.6
20260831165405 94 163 6.0 10.0 0.00 0.00 0.00 48 1016.6
20260831165305 94 164 6.0 11.0 0.00 0.00 0.00 47 1016.6
20260831165204 93 168 5.0 12.0 0.00 0.00 0.00 49 1016.6
20260831165006 93 166 5.0 12.0 0.00 0.00 0.00 50 1016.6
20260831164904 93 165 5.0 12.0 0.00 0.00 0.00 50 1016.5
20260831164805 93 165 5.0 12.0 0.00 0.00 0.00 49 1016.6
20260831164705 93 162 5.0 12.0 0.00 0.00 0.00 48 1016.6
20260831164605 93 162 5.0 12.0 0.00 0.00 0.00 48 1016.6
20260831164505 93 162 5.0 12.0 0.00 0.00 0.00 48 1016.6
20260831164405 93 165 5.0 12.0 0.00 0.00 0.00 48 1016.6
20260831164205 93 183 5.0 9.0 0.00 0.00 0.00 51 1016.7
20260831164104 93 185 5.0 9.0 0.00 0.00 0.00 51 1016.7
20260831164005 93 184 5.0 9.0 0.00 0.00 0.00 51 1016.7
20260831163906 93 183 5.0 9.0 0.00 0.00 0.00 51 1016.8
20260831163805 93 181 5.0 9.0 0.00 0.00 0.00 50 1016.7
20260831163704 93 185 4.0 9.0 0.00 0.00 0.00 51 1016.8
20260831163505 92 191 4.0 9.0 0.00 0.00 0.00 51 1016.7
20260831163405 92 191 4.0 9.0 0.00 0.00 0.00 51 1016.7
20260831163305 92 190 4.0 9.0 0.00 0.00 0.00 51 1016.7
20260831163005 91 170 5.0 15.0 0.00 0.00 0.00 52 1016.7
20260831162805 91 171 5.0 15.0 0.00 0.00 0.00 53 1016.7
20260831162705 91 173 6.0 15.0 0.00 0.00 0.00 53 1016.8
20260831162505 91 166 6.0 15.0 0.00 0.00 0.00 55 1016.8
20260831162405 91 166 6.0 15.0 0.00 0.00 0.00 55 1016.8
20260831162306 91 167 6.0 15.0 0.00 0.00 0.00 55 1016.8
20260831162205 91 173 6.0 15.0 0.00 0.00 0.00 54 1016.8
20260831162104 91 185 6.0 12.0 0.00 0.00 0.00 54 1016.8
20260831162005 91 186 5.0 12.0 0.00 0.00 0.00 54 1016.8
20260831161904 92 188 5.0 12.0 0.00 0.00 0.00 52 1016.8
20260831161805 92 191 5.0 12.0 0.00 0.00 0.00 52 1016.8
20260831161704 91 193 4.0 11.0 0.00 0.00 0.00 56 1016.8
20260831161605 91 198 4.0 10.0 0.00 0.00 0.00 56 1016.9
20260831161505 91 201 4.0 10.0 0.00 0.00 0.00 56 1016.9
20260831161405 91 207 4.0 10.0 0.00 0.00 0.00 56 1016.8
20260831161304 90 205 4.0 10.0 0.00 0.00 0.00 57 1016.9
20260831161206 90 205 4.0 10.0 0.00 0.00 0.00 57 1016.9
20260831161105 90 198 4.0 10.0 0.00 0.00 0.00 57 1016.8
20260831161005 90 195 5.0 10.0 0.00 0.00 0.00 57 1016.9
20260831160904 90 201 5.0 14.0 0.00 0.00 0.00 57 1016.8
20260831160705 90 195 5.0 14.0 0.00 0.00 0.00 56 1016.8
20260831160605 90 195 5.0 14.0 0.00 0.00 0.00 56 1016.8
20260831160504 90 194 6.0 14.0 0.00 0.00 0.00 56 1016.8
20260831160406 90 195 6.0 14.0 0.00 0.00 0.00 56 1016.8
20260831160205 90 190 6.0 14.0 0.00 0.00 0.00 57 1016.8
20260831160104 90 191 6.0 14.0 0.00 0.00 0.00 57 1016.8
20260831155905 90 187 5.0 14.0 0.00 0.00 0.00 57 1016.9
20260831155805 90 184 6.0 12.0 0.00 0.00 0.00 57 1016.9
20260831155705 90 179 6.0 12.0 0.00 0.00 0.00 57 1016.8
20260831155504 90 172 6.0 12.0 0.00 0.00 0.00 57 1016.8
20260831155405 90 168 6.0 12.0 0.00 0.00 0.00 57 1016.9
20260831155306 90 167 5.0 12.0 0.00 0.00 0.00 57 1016.8
20260831155105 89 172 5.0 10.0 0.00 0.00 0.00 59 1016.8
20260831155005 89 178 5.0 10.0 0.00 0.00 0.00 59 1016.8
20260831154605 89 193 4.0 10.0 0.00 0.00 0.00 60 1016.8
20260831154505 89 200 4.0 10.0 0.00 0.00 0.00 59 1016.7
20260831154405 90 209 5.0 10.0 0.00 0.00 0.00 60 1016.7
20260831154205 89 207 5.0 11.0 0.00 0.00 0.00 62 1016.7
20260831154105 89 208 5.0 11.0 0.00 0.00 0.00 62 1016.7
20260831154004 88 209 5.0 11.0 0.00 0.00 0.00 62 1016.7
20260831153905 88 208 4.0 11.0 0.00 0.00 0.00 62 1016.7
20260831153804 88 208 5.0 11.0 0.00 0.00 0.00 63 1016.7
20260831153705 88 207 5.0 11.0 0.00 0.00 0.00 62 1016.7
20260831153504 88 205 5.0 11.0 0.00 0.00 0.00 62 1016.7
20260831153406 89 206 5.0 11.0 0.00 0.00 0.00 62 1016.7
20260831153304 89 208 4.0 11.0 0.00 0.00 0.00 62 1016.6
20260831153205 89 212 5.0 9.0 0.00 0.00 0.00 62 1016.6